| time (UTC) | temp F | wind direction | speed MPH | gust MPH | rain 1hr in | rain 24hr in | rain mn in | humidity % | barometer mb |
| 20260510052247 | 56 | 61 | 3.0 | 4.0 | 0.00 | 0.24 | 0.11 | 98 | 1008.4 |
| 20260510052104 | 56 | 103 | 1.0 | 4.0 | 0.00 | 0.24 | 0.11 | 97 | 1008.4 |
| 20260510052030 | 56 | 115 | 1.0 | 4.0 | 0.00 | 0.24 | 0.11 | 97 | 1008.5 |
| 20260510051929 | 56 | 262 | 1.0 | 4.0 | 0.00 | 0.24 | 0.11 | 97 | 1008.3 |
| 20260510051748 | 56 | 101 | 1.0 | 4.0 | 0.00 | 0.24 | 0.11 | 97 | 1008.4 |
| 20260510051405 | 56 | 80 | 3.0 | 4.0 | 0.00 | 0.24 | 0.11 | 97 | 1008.3 |
| 20260510051203 | 56 | 84 | 2.0 | 4.0 | 0.00 | 0.24 | 0.11 | 97 | 1008.4 |
| 20260510051026 | 56 | 175 | 0.0 | 3.0 | 0.00 | 0.24 | 0.11 | 97 | 1008.5 |
| 20260510050951 | 56 | 250 | 0.0 | 3.0 | 0.00 | 0.24 | 0.11 | 97 | 1008.5 |
| 20260510050907 | 56 | 250 | 2.0 | 3.0 | 0.00 | 0.24 | 0.11 | 97 | 1008.6 |
| 20260510050723 | 56 | 198 | 1.0 | 3.0 | 0.00 | 0.24 | 0.11 | 97 | 1008.4 |
| 20260510050627 | 56 | 80 | 1.0 | 3.0 | 0.00 | 0.24 | 0.11 | 97 | 1008.4 |
| 20260510050600 | 56 | 71 | 1.0 | 3.0 | 0.00 | 0.24 | 0.11 | 97 | 1008.3 |
| 20260510050419 | 56 | 89 | 1.0 | 5.0 | 0.00 | 0.24 | 0.11 | 97 | 1008.3 |
| 20260510050324 | 56 | 89 | 1.0 | 5.0 | 0.00 | 0.24 | 0.11 | 97 | 1008.3 |
| 20260510045937 | 56 | 105 | 2.0 | 5.0 | 0.00 | 0.24 | 0.11 | 97 | 1008.3 |
| 20260510045801 | 56 | 109 | 3.0 | 5.0 | 0.00 | 0.24 | 0.11 | 97 | 1008.4 |
| 20260510045417 | 56 | 85 | 2.0 | 5.0 | 0.00 | 0.24 | 0.11 | 97 | 1008.3 |
| 20260510045223 | 56 | 107 | 2.0 | 6.0 | 0.00 | 0.24 | 0.11 | 98 | 1008.3 |
| 20260510045100 | 56 | 165 | 2.0 | 6.0 | 0.00 | 0.24 | 0.11 | 98 | 1008.5 |
| 20260510045029 | 56 | 166 | 2.0 | 6.0 | 0.00 | 0.24 | 0.11 | 98 | 1008.4 |
| 20260510044855 | 56 | 121 | 3.0 | 6.0 | 0.00 | 0.24 | 0.11 | 98 | 1008.3 |
| 20260510044125 | 56 | 74 | 2.0 | 6.0 | 0.00 | 0.24 | 0.11 | 97 | 1008.3 |
| 20260510043943 | 56 | 315 | 1.0 | 5.0 | 0.00 | 0.24 | 0.11 | 97 | 1008.3 |
| 20260510043826 | 56 | 237 | 2.0 | 5.0 | 0.00 | 0.24 | 0.11 | 97 | 1008.4 |
| 20260510043412 | 56 | 179 | 3.0 | 5.0 | 0.00 | 0.24 | 0.11 | 97 | 1008.4 |
| 20260510043231 | 56 | 44 | 3.0 | 5.0 | 0.00 | 0.24 | 0.11 | 97 | 1008.3 |
| 20260510043122 | 56 | 61 | 2.0 | 4.0 | 0.00 | 0.24 | 0.11 | 98 | 1008.3 |
| 20260510043044 | 56 | 88 | 2.0 | 4.0 | 0.00 | 0.24 | 0.11 | 98 | 1008.4 |
| 20260510042853 | 56 | 152 | 2.0 | 4.0 | 0.00 | 0.24 | 0.11 | 98 | 1008.4 |
| 20260510042102 | 56 | 90 | 2.0 | 4.0 | 0.00 | 0.24 | 0.11 | 98 | 1008.4 |
| 20260510041945 | 56 | 98 | 2.0 | 4.0 | 0.00 | 0.24 | 0.11 | 98 | 1008.4 |
| 20260510041840 | 56 | 91 | 2.0 | 4.0 | 0.00 | 0.24 | 0.11 | 97 | 1008.4 |
| 20260510041804 | 56 | 86 | 2.0 | 4.0 | 0.00 | 0.24 | 0.11 | 97 | 1008.3 |
| 20260510041232 | 56 | 162 | 2.0 | 4.0 | 0.00 | 0.24 | 0.11 | 97 | 1008.5 |
| 20260510040843 | 56 | 109 | 2.0 | 4.0 | 0.00 | 0.24 | 0.11 | 97 | 1008.4 |
| 20260510040732 | 56 | 111 | 2.0 | 4.0 | 0.00 | 0.24 | 0.11 | 97 | 1008.4 |
| 20260510040633 | 56 | 121 | 2.0 | 4.0 | 0.00 | 0.24 | 0.11 | 97 | 1008.5 |
| 20260510040556 | 56 | 113 | 2.0 | 4.0 | 0.00 | 0.24 | 0.11 | 97 | 1008.4 |
| 20260510040407 | 56 | 161 | 2.0 | 4.0 | 0.00 | 0.24 | 0.11 | 97 | 1008.4 |
| 20260510040214 | 56 | 136 | 2.0 | 4.0 | 0.00 | 0.24 | 0.11 | 98 | 1008.5 |
| 20260510040032 | 56 | 84 | 2.0 | 4.0 | 0.00 | 0.24 | 0.11 | 98 | 1008.5 |
| 20260510035859 | 56 | 116 | 2.0 | 4.0 | 0.00 | 0.24 | 0.11 | 97 | 1008.4 |
| 20260510035806 | 56 | 120 | 2.0 | 4.0 | 0.00 | 0.24 | 0.11 | 97 | 1008.4 |
| 20260510035711 | 56 | 112 | 2.0 | 3.0 | 0.00 | 0.24 | 0.11 | 97 | 1008.4 |
| 20260510035543 | 56 | 76 | 1.0 | 3.0 | 0.00 | 0.24 | 0.11 | 97 | 1008.4 |
| 20260510034902 | 56 | 113 | 0.0 | 3.0 | 0.00 | 0.24 | 0.11 | 97 | 1008.4 |
| 20260510034812 | 56 | 113 | 0.0 | 4.0 | 0.00 | 0.24 | 0.11 | 97 | 1008.4 |
| 20260510034749 | 56 | 113 | 0.0 | 4.0 | 0.00 | 0.24 | 0.11 | 97 | 1008.4 |
| 20260510034710 | 56 | 113 | 0.0 | 4.0 | 0.00 | 0.24 | 0.11 | 97 | 1008.6 |
| 20260510034608 | 56 | 113 | 2.0 | 4.0 | 0.00 | 0.24 | 0.11 | 97 | 1008.4 |
| 20260510033846 | 56 | 93 | 1.0 | 4.0 | 0.00 | 0.24 | 0.11 | 97 | 1008.5 |
| 20260510033713 | 56 | 129 | 0.0 | 4.0 | 0.00 | 0.24 | 0.11 | 97 | 1008.5 |
| 20260510033632 | 56 | 182 | 1.0 | 4.0 | 0.00 | 0.24 | 0.11 | 97 | 1008.6 |
| 20260510033545 | 56 | 182 | 2.0 | 4.0 | 0.00 | 0.24 | 0.11 | 97 | 1008.5 |
| 20260510033416 | 56 | 142 | 1.0 | 4.0 | 0.00 | 0.24 | 0.11 | 97 | 1008.5 |
| 20260510033231 | 56 | 122 | 2.0 | 4.0 | 0.00 | 0.24 | 0.11 | 97 | 1008.5 |
| 20260510032704 | 56 | 88 | 2.0 | 4.0 | 0.00 | 0.24 | 0.11 | 97 | 1008.6 |
| 20260510032618 | 56 | 100 | 2.0 | 3.0 | 0.00 | 0.24 | 0.11 | 97 | 1008.6 |
| 20260510032513 | 56 | 128 | 1.0 | 3.0 | 0.00 | 0.24 | 0.11 | 97 | 1008.7 |
| 20260510032012 | 56 | 63 | 2.0 | 3.0 | 0.00 | 0.24 | 0.11 | 97 | 1008.7 |
| 20260510031619 | 56 | 80 | 2.0 | 3.0 | 0.00 | 0.24 | 0.11 | 97 | 1008.7 |
| 20260510031455 | 56 | 99 | 1.0 | 3.0 | 0.00 | 0.24 | 0.11 | 97 | 1008.7 |
| 20260510031422 | 56 | 118 | 0.0 | 4.0 | 0.00 | 0.24 | 0.11 | 97 | 1008.9 |
| 20260510031340 | 56 | 118 | 0.0 | 4.0 | 0.00 | 0.24 | 0.11 | 97 | 1008.7 |
| 20260510031156 | 56 | 100 | 0.0 | 4.0 | 0.00 | 0.24 | 0.11 | 97 | 1008.8 |
| 20260510031052 | 56 | 103 | 2.0 | 4.0 | 0.00 | 0.24 | 0.11 | 97 | 1008.7 |
| 20260510031046 | 56 | 103 | 2.0 | 4.0 | 0.00 | 0.24 | 0.11 | 97 | 1008.7 |
| 20260510030913 | 56 | 82 | 3.0 | 4.0 | 0.00 | 0.24 | 0.11 | 97 | 1008.8 |
| 20260510030741 | 56 | 96 | 2.0 | 4.0 | 0.00 | 0.24 | 0.11 | 97 | 1008.7 |
| 20260510030646 | 56 | 104 | 2.0 | 4.0 | 0.00 | 0.24 | 0.11 | 97 | 1008.7 |
| 20260510030534 | 56 | 90 | 2.0 | 4.0 | 0.00 | 0.24 | 0.11 | 97 | 1008.7 |
| 20260510030400 | 56 | 77 | 2.0 | 4.0 | 0.00 | 0.24 | 0.11 | 97 | 1008.7 |
| 20260510030009 | 56 | 74 | 3.0 | 4.0 | 0.00 | 0.24 | 0.11 | 97 | 1008.7 |
| 20260510025813 | 56 | 81 | 2.0 | 4.0 | 0.00 | 0.24 | 0.11 | 97 | 1008.8 |
| 20260510025637 | 56 | 92 | 3.0 | 4.0 | 0.00 | 0.24 | 0.11 | 97 | 1008.8 |
| 20260510025549 | 56 | 98 | 2.0 | 4.0 | 0.00 | 0.24 | 0.11 | 97 | 1008.7 |
| 20260510025432 | 56 | 88 | 2.0 | 4.0 | 0.00 | 0.24 | 0.11 | 97 | 1008.9 |
| 20260510025306 | 56 | 86 | 3.0 | 4.0 | 0.00 | 0.24 | 0.11 | 97 | 1008.8 |
| 20260510025127 | 56 | 78 | 3.0 | 4.0 | 0.00 | 0.24 | 0.11 | 97 | 1008.9 |
| 20260510025119 | 56 | 84 | 3.0 | 4.0 | 0.00 | 0.24 | 0.11 | 97 | 1008.9 |
| 20260510024933 | 56 | 82 | 2.0 | 4.0 | 0.00 | 0.24 | 0.11 | 97 | 1008.9 |
| 20260510024809 | 56 | 98 | 2.0 | 3.0 | 0.00 | 0.24 | 0.11 | 97 | 1008.9 |
| 20260510024722 | 56 | 80 | 2.0 | 4.0 | 0.00 | 0.24 | 0.11 | 97 | 1009.0 |
| 20260510024606 | 56 | 92 | 2.0 | 4.0 | 0.00 | 0.24 | 0.11 | 97 | 1009.0 |
| 20260510024433 | 56 | 101 | 2.0 | 4.0 | 0.00 | 0.24 | 0.11 | 97 | 1008.9 |
| 20260510024300 | 56 | 81 | 2.0 | 4.0 | 0.00 | 0.24 | 0.11 | 97 | 1008.9 |
| 20260510024246 | 56 | 76 | 2.0 | 4.0 | 0.00 | 0.24 | 0.11 | 97 | 1008.9 |
| 20260510023727 | 56 | 64 | 2.0 | 4.0 | 0.00 | 0.24 | 0.11 | 97 | 1009.0 |
| 20260510023303 | 56 | 70 | 1.0 | 3.0 | 0.00 | 0.24 | 0.11 | 97 | 1009.0 |
| 20260510023130 | 56 | 70 | 2.0 | 3.0 | 0.00 | 0.24 | 0.11 | 97 | 1009.0 |
| 20260510022741 | 56 | 70 | 2.0 | 4.0 | 0.00 | 0.24 | 0.11 | 97 | 1008.9 |
| 20260510022542 | 56 | 59 | 1.0 | 4.0 | 0.00 | 0.24 | 0.11 | 97 | 1008.9 |
| 20260510022410 | 56 | 65 | 2.0 | 4.0 | 0.00 | 0.24 | 0.11 | 97 | 1009.0 |
| 20260510022338 | 56 | 63 | 2.0 | 4.0 | 0.00 | 0.24 | 0.11 | 97 | 1008.9 |
| 20260510021513 | 57 | 59 | 2.0 | 4.0 | 0.00 | 0.24 | 0.11 | 97 | 1008.8 |
| 20260510021459 | 57 | 59 | 2.0 | 4.0 | 0.00 | 0.24 | 0.11 | 97 | 1008.9 |
| 20260510021308 | 57 | 91 | 3.0 | 4.0 | 0.00 | 0.24 | 0.11 | 97 | 1008.9 |
| 20260510021136 | 57 | 67 | 2.0 | 4.0 | 0.00 | 0.24 | 0.11 | 97 | 1008.9 |
| 20260510020733 | 57 | 93 | 2.0 | 4.0 | 0.00 | 0.24 | 0.11 | 97 | 1009.0 |
| 20260510020615 | 57 | 119 | 2.0 | 4.0 | 0.00 | 0.24 | 0.11 | 97 | 1008.9 |
| 20260510020245 | 57 | 85 | 1.0 | 4.0 | 0.01 | 0.24 | 0.11 | 97 | 1008.9 |
| 20260510020050 | 56 | 78 | 2.0 | 4.0 | 0.01 | 0.24 | 0.11 | 97 | 1009.0 |
| 20260510015621 | 56 | 125 | 2.0 | 4.0 | 0.01 | 0.24 | 0.11 | 97 | 1009.0 |
| 20260510015518 | 56 | 114 | 2.0 | 4.0 | 0.01 | 0.24 | 0.11 | 97 | 1008.9 |
| 20260510015333 | 56 | 83 | 2.0 | 3.0 | 0.01 | 0.24 | 0.11 | 97 | 1009.0 |
| 20260510015157 | 56 | 90 | 1.0 | 2.0 | 0.01 | 0.24 | 0.11 | 97 | 1008.9 |
| 20260510015024 | 56 | 88 | 0.0 | 2.0 | 0.01 | 0.24 | 0.11 | 97 | 1008.9 |
| 20260510014919 | 56 | 88 | 0.0 | 2.0 | 0.01 | 0.24 | 0.11 | 97 | 1009.0 |
| 20260510014827 | 56 | 71 | 0.0 | 2.0 | 0.01 | 0.24 | 0.11 | 97 | 1008.9 |
| 20260510014740 | 56 | 71 | 1.0 | 2.0 | 0.01 | 0.24 | 0.11 | 97 | 1009.0 |
| 20260510014630 | 56 | 75 | 1.0 | 3.0 | 0.01 | 0.24 | 0.11 | 97 | 1008.9 |
| 20260510014307 | 56 | 75 | 1.0 | 3.0 | 0.01 | 0.24 | 0.11 | 97 | 1009.0 |
| 20260510014121 | 56 | 68 | 0.0 | 3.0 | 0.01 | 0.24 | 0.11 | 97 | 1009.0 |
| 20260510014022 | 56 | 68 | 2.0 | 3.0 | 0.01 | 0.24 | 0.11 | 97 | 1009.0 |
| 20260510013941 | 56 | 68 | 2.0 | 3.0 | 0.01 | 0.24 | 0.11 | 97 | 1009.0 |
| 20260510013852 | 56 | 68 | 2.0 | 3.0 | 0.01 | 0.24 | 0.11 | 97 | 1009.0 |
| 20260510013736 | 56 | 86 | 2.0 | 3.0 | 0.02 | 0.24 | 0.11 | 97 | 1009.0 |
| 20260510013558 | 56 | 154 | 1.0 | 3.0 | 0.02 | 0.24 | 0.11 | 97 | 1009.0 |
| 20260510013408 | 56 | 254 | 1.0 | 3.0 | 0.02 | 0.24 | 0.11 | 97 | 1009.1 |
| 20260510013232 | 56 | 254 | 1.0 | 3.0 | 0.02 | 0.24 | 0.11 | 97 | 1009.1 |
| 20260510013149 | 56 | 213 | 0.0 | 3.0 | 0.02 | 0.24 | 0.11 | 97 | 1009.1 |
| 20260510013056 | 56 | 117 | 0.0 | 3.0 | 0.02 | 0.24 | 0.11 | 97 | 1009.1 |
| 20260510012952 | 56 | 117 | 2.0 | 3.0 | 0.02 | 0.24 | 0.11 | 97 | 1009.1 |
| 20260510012818 | 56 | 117 | 2.0 | 3.0 | 0.02 | 0.24 | 0.11 | 97 | 1009.1 |
| 20260510012442 | 56 | 96 | 1.0 | 3.0 | 0.02 | 0.24 | 0.11 | 97 | 1009.1 |
| 20260510012328 | 56 | 79 | 0.0 | 3.0 | 0.02 | 0.24 | 0.11 | 97 | 1009.1 |
| 20260510012242 | 56 | 89 | 0.0 | 3.0 | 0.02 | 0.24 | 0.11 | 97 | 1009.1 |
| 20260510012206 | 56 | 89 | 0.0 | 3.0 | 0.02 | 0.24 | 0.11 | 97 | 1009.0 |
| 20260510012111 | 56 | 89 | 1.0 | 3.0 | 0.02 | 0.24 | 0.11 | 97 | 1009.0 |
| 20260510011953 | 56 | 73 | 2.0 | 4.0 | 0.02 | 0.24 | 0.11 | 97 | 1009.1 |
| 20260510011820 | 56 | 83 | 2.0 | 4.0 | 0.02 | 0.24 | 0.11 | 97 | 1009.1 |
| 20260510011653 | 56 | 80 | 0.0 | 4.0 | 0.02 | 0.24 | 0.11 | 97 | 1009.1 |
| 20260510011605 | 56 | 101 | 1.0 | 4.0 | 0.02 | 0.24 | 0.11 | 97 | 1009.1 |
| 20260510011508 | 56 | 101 | 1.0 | 4.0 | 0.02 | 0.24 | 0.11 | 97 | 1009.2 |
| 20260510011350 | 56 | 82 | 2.0 | 4.0 | 0.02 | 0.24 | 0.11 | 97 | 1009.1 |
| 20260510011208 | 56 | 88 | 1.0 | 3.0 | 0.02 | 0.24 | 0.10 | 97 | 1009.2 |
| 20260510010811 | 56 | 115 | 1.0 | 3.0 | 0.02 | 0.24 | 0.10 | 97 | 1009.2 |
| 20260510010648 | 56 | 103 | 2.0 | 3.0 | 0.02 | 0.24 | 0.10 | 97 | 1009.2 |
| 20260510010552 | 56 | 96 | 2.0 | 3.0 | 0.02 | 0.24 | 0.10 | 96 | 1009.2 |
| 20260510010448 | 56 | 88 | 2.0 | 3.0 | 0.02 | 0.24 | 0.10 | 96 | 1009.2 |
| 20260510010313 | 56 | 103 | 2.0 | 3.0 | 0.02 | 0.24 | 0.10 | 96 | 1009.2 |
| 20260510010153 | 56 | 76 | 3.0 | 3.0 | 0.02 | 0.24 | 0.10 | 96 | 1009.2 |
| 20260510005829 | 56 | 76 | 2.0 | 3.0 | 0.02 | 0.24 | 0.10 | 96 | 1009.2 |
| 20260510005711 | 56 | 78 | 2.0 | 3.0 | 0.02 | 0.24 | 0.10 | 96 | 1009.2 |
| 20260510005629 | 56 | 67 | 2.0 | 2.0 | 0.02 | 0.24 | 0.10 | 96 | 1009.2 |
| 20260510005541 | 56 | 67 | 2.0 | 2.0 | 0.02 | 0.24 | 0.10 | 96 | 1009.3 |
| 20260510005447 | 56 | 67 | 2.0 | 2.0 | 0.02 | 0.24 | 0.10 | 96 | 1009.2 |
| 20260510005338 | 56 | 73 | 1.0 | 2.0 | 0.03 | 0.24 | 0.10 | 96 | 1009.2 |
| 20260510005207 | 56 | 68 | 0.0 | 2.0 | 0.03 | 0.24 | 0.10 | 96 | 1009.3 |
| 20260510005123 | 56 | 68 | 0.0 | 2.0 | 0.03 | 0.24 | 0.10 | 96 | 1009.2 |
| 20260510005045 | 56 | 68 | 0.0 | 2.0 | 0.03 | 0.24 | 0.10 | 96 | 1009.3 |
| 20260510004657 | 56 | 68 | 0.0 | 2.0 | 0.02 | 0.23 | 0.10 | 96 | 1009.3 |
| 20260510004544 | 56 | 68 | 1.0 | 2.0 | 0.03 | 0.23 | 0.09 | 96 | 1009.3 |
| 20260510004413 | 56 | 71 | 0.0 | 2.0 | 0.03 | 0.23 | 0.09 | 96 | 1009.2 |
| 20260510004312 | 56 | 71 | 0.0 | 3.0 | 0.03 | 0.23 | 0.09 | 96 | 1009.4 |
| 20260510004227 | 56 | 72 | 0.0 | 3.0 | 0.03 | 0.23 | 0.09 | 96 | 1009.4 |
| 20260510004137 | 56 | 72 | 1.0 | 3.0 | 0.03 | 0.23 | 0.09 | 96 | 1009.4 |
| 20260510004008 | 56 | 72 | 2.0 | 3.0 | 0.03 | 0.23 | 0.09 | 96 | 1009.3 |
| 20260510003839 | 56 | 70 | 2.0 | 3.0 | 0.03 | 0.23 | 0.09 | 96 | 1009.3 |
| 20260510003709 | 57 | 76 | 2.0 | 3.0 | 0.03 | 0.23 | 0.09 | 96 | 1009.3 |
| 20260510003546 | 57 | 82 | 1.0 | 3.0 | 0.04 | 0.23 | 0.09 | 96 | 1009.4 |
| 20260510003508 | 57 | 78 | 1.0 | 2.0 | 0.04 | 0.23 | 0.09 | 96 | 1009.3 |
| 20260510003427 | 57 | 78 | 2.0 | 2.0 | 0.04 | 0.23 | 0.09 | 96 | 1009.4 |
| 20260510003303 | 57 | 94 | 1.0 | 2.0 | 0.03 | 0.22 | 0.09 | 96 | 1009.3 |
| 20260510002608 | 57 | 115 | 1.0 | 2.0 | 0.03 | 0.22 | 0.09 | 96 | 1009.2 |
| 20260510002435 | 57 | 126 | 1.0 | 2.0 | 0.04 | 0.22 | 0.09 | 96 | 1009.3 |
| 20260510002337 | 56 | 125 | 0.0 | 2.0 | 0.04 | 0.22 | 0.09 | 96 | 1009.2 |
| 20260510002256 | 56 | 105 | 0.0 | 1.0 | 0.04 | 0.22 | 0.09 | 96 | 1009.1 |
| 20260510002142 | 56 | 74 | 0.0 | 2.0 | 0.04 | 0.22 | 0.09 | 96 | 1009.2 |
| 20260510002019 | 56 | 74 | 0.0 | 3.0 | 0.05 | 0.22 | 0.09 | 96 | 1009.2 |
| 20260510001942 | 56 | 74 | 0.0 | 3.0 | 0.05 | 0.22 | 0.09 | 96 | 1009.3 |
| 20260510001904 | 57 | 74 | 0.0 | 3.0 | 0.05 | 0.22 | 0.09 | 96 | 1009.3 |
| 20260510001818 | 57 | 74 | 1.0 | 3.0 | 0.04 | 0.21 | 0.08 | 96 | 1009.3 |
| 20260510001728 | 57 | 74 | 2.0 | 3.0 | 0.04 | 0.21 | 0.08 | 96 | 1009.2 |
| 20260510001610 | 57 | 74 | 2.0 | 3.0 | 0.04 | 0.21 | 0.08 | 96 | 1009.2 |
| 20260510001508 | 57 | 63 | 1.0 | 3.0 | 0.04 | 0.21 | 0.08 | 96 | 1009.3 |
| 20260510001442 | 57 | 69 | 1.0 | 3.0 | 0.04 | 0.21 | 0.08 | 96 | 1009.3 |
| 20260510001342 | 57 | 84 | 1.0 | 3.0 | 0.04 | 0.21 | 0.08 | 96 | 1009.4 |
| 20260510001226 | 57 | 82 | 0.0 | 2.0 | 0.05 | 0.21 | 0.08 | 96 | 1009.3 |
| 20260510001148 | 57 | 82 | 1.0 | 3.0 | 0.05 | 0.21 | 0.08 | 96 | 1009.3 |
| 20260510001050 | 57 | 82 | 2.0 | 3.0 | 0.05 | 0.21 | 0.08 | 96 | 1009.3 |
| 20260510000604 | 57 | 136 | 0.0 | 3.0 | 0.04 | 0.20 | 0.07 | 96 | 1009.3 |
| 20260510000207 | 57 | 139 | 1.0 | 3.0 | 0.05 | 0.20 | 0.07 | 96 | 1009.3 |
| 20260509235809 | 57 | 145 | 1.0 | 3.0 | 0.05 | 0.20 | 0.07 | 96 | 1009.3 |
| 20260509235328 | 57 | 132 | 0.0 | 2.0 | 0.05 | 0.20 | 0.07 | 96 | 1009.3 |
| 20260509234646 | 57 | 109 | 0.0 | 1.0 | 0.05 | 0.20 | 0.06 | 96 | 1009.4 |
| 20260509234313 | 57 | 109 | 0.0 | 2.0 | 0.05 | 0.20 | 0.06 | 96 | 1009.4 |
| 20260509234237 | 57 | 109 | 0.0 | 2.0 | 0.05 | 0.20 | 0.06 | 96 | 1009.4 |
| 20260509234141 | 57 | 109 | 0.0 | 3.0 | 0.06 | 0.20 | 0.06 | 96 | 1009.4 |
| 20260509234052 | 57 | 109 | 0.0 | 3.0 | 0.06 | 0.20 | 0.06 | 96 | 1009.3 |
| 20260509234018 | 57 | 109 | 0.0 | 3.0 | 0.06 | 0.20 | 0.06 | 96 | 1009.4 |
| 20260509233915 | 57 | 109 | 0.0 | 3.0 | 0.05 | 0.19 | 0.06 | 96 | 1009.3 |
| 20260509233746 | 57 | 109 | 0.0 | 4.0 | 0.06 | 0.19 | 0.06 | 96 | 1009.3 |
| 20260509233725 | 57 | 109 | 1.0 | 4.0 | 0.06 | 0.19 | 0.06 | 96 | 1009.4 |
| 20260509233623 | 57 | 100 | 1.0 | 4.0 | 0.06 | 0.19 | 0.06 | 96 | 1009.3 |
| 20260509233456 | 57 | 86 | 0.0 | 4.0 | 0.06 | 0.19 | 0.06 | 96 | 1009.4 |
| 20260509233340 | 57 | 122 | 0.0 | 4.0 | 0.06 | 0.19 | 0.06 | 96 | 1009.3 |
| 20260509233015 | 57 | 149 | 2.0 | 4.0 | 0.06 | 0.19 | 0.06 | 96 | 1009.4 |
| 20260509232839 | 57 | 153 | 0.0 | 3.0 | 0.06 | 0.18 | 0.05 | 96 | 1009.3 |
| 20260509232805 | 57 | 166 | 0.0 | 3.0 | 0.06 | 0.18 | 0.05 | 96 | 1009.3 |
| 20260509232710 | 57 | 178 | 0.0 | 3.0 | 0.06 | 0.18 | 0.05 | 96 | 1009.3 |
| 20260509232609 | 57 | 178 | 1.0 | 3.0 | 0.06 | 0.18 | 0.05 | 96 | 1009.4 |
| 20260509232500 | 57 | 90 | 3.0 | 3.0 | 0.06 | 0.17 | 0.04 | 95 | 1009.4 |
| 20260509232443 | 57 | 90 | 3.0 | 5.0 | 0.06 | 0.17 | 0.04 | 95 | 1009.4 |
| 20260509232345 | 57 | 90 | 2.0 | 5.0 | 0.06 | 0.17 | 0.04 | 95 | 1009.4 |
| 20260509232233 | 57 | 45 | 1.0 | 5.0 | 0.06 | 0.17 | 0.04 | 95 | 1009.3 |
| 20260509232135 | 57 | 140 | 0.0 | 5.0 | 0.06 | 0.17 | 0.04 | 95 | 1009.4 |
| 20260509231731 | 57 | 172 | 1.0 | 5.0 | 0.07 | 0.17 | 0.04 | 95 | 1009.5 |
| 20260509231548 | 57 | 157 | 3.0 | 5.0 | 0.07 | 0.17 | 0.04 | 95 | 1009.5 |
| 20260509231150 | 58 | 158 | 4.0 | 5.0 | 0.07 | 0.17 | 0.04 | 95 | 1009.5 |
| 20260509230752 | 58 | 201 | 1.0 | 3.0 | 0.07 | 0.17 | 0.03 | 95 | 1009.2 |
| 20260509230711 | 58 | 201 | 1.0 | 3.0 | 0.07 | 0.17 | 0.03 | 95 | 1009.3 |
| 20260509230553 | 58 | 254 | 1.0 | 1.0 | 0.07 | 0.17 | 0.03 | 95 | 1009.1 |
| 20260509230430 | 58 | 261 | 0.0 | 1.0 | 0.07 | 0.17 | 0.03 | 94 | 1009.1 |
| 20260509225723 | 58 | 261 | 0.0 | 3.0 | 0.07 | 0.16 | 0.02 | 94 | 1009.1 |
| 20260509225357 | 58 | 261 | 0.0 | 3.0 | 0.07 | 0.16 | 0.02 | 94 | 1009.1 |
| 20260509225312 | 58 | 261 | 0.0 | 3.0 | 0.08 | 0.16 | 0.02 | 94 | 1009.2 |
| 20260509225211 | 58 | 261 | 0.0 | 3.0 | 0.07 | 0.15 | 0.02 | 94 | 1009.2 |
| 20260509225155 | 58 | 261 | 1.0 | 3.0 | 0.07 | 0.15 | 0.02 | 94 | 1009.2 |
| 20260509225039 | 58 | 261 | 2.0 | 3.0 | 0.08 | 0.15 | 0.02 | 94 | 1009.2 |
| 20260509224922 | 58 | 257 | 0.0 | 4.0 | 0.08 | 0.15 | 0.02 | 94 | 1009.2 |
| 20260509224217 | 58 | 152 | 2.0 | 7.0 | 0.08 | 0.14 | 0.01 | 93 | 1009.2 |
| 20260509223900 | 58 | 152 | 0.0 | 7.0 | 0.08 | 0.14 | 0.01 | 93 | 1009.2 |
| 20260509223755 | 58 | 257 | 4.0 | 7.0 | 0.08 | 0.13 | 0.00 | 93 | 1009.3 |
| 20260509223659 | 58 | 257 | 2.0 | 7.0 | 0.08 | 0.13 | 0.00 | 93 | 1009.2 |
| 20260509223626 | 58 | 257 | 2.0 | 7.0 | 0.08 | 0.13 | 0.00 | 93 | 1009.2 |
| 20260509223511 | 58 | 263 | 2.0 | 4.0 | 0.08 | 0.13 | 0.00 | 93 | 1009.3 |
| 20260509223348 | 58 | 259 | 2.0 | 3.0 | 0.08 | 0.13 | 0.00 | 93 | 1009.2 |
| 20260509223215 | 58 | 281 | 2.0 | 3.0 | 0.09 | 0.13 | 0.13 | 93 | 1009.2 |
| 20260509222800 | 58 | 250 | 1.0 | 3.0 | 0.08 | 0.13 | 0.13 | 92 | 1009.2 |
| 20260509222633 | 58 | 248 | 1.0 | 3.0 | 0.09 | 0.13 | 0.13 | 92 | 1009.2 |
| 20260509222609 | 58 | 248 | 1.0 | 3.0 | 0.09 | 0.13 | 0.13 | 92 | 1009.3 |
| 20260509222448 | 58 | 139 | 0.0 | 4.0 | 0.09 | 0.13 | 0.13 | 92 | 1009.3 |
| 20260509222344 | 58 | 122 | 0.0 | 4.0 | 0.08 | 0.12 | 0.12 | 92 | 1009.3 |
| 20260509222238 | 58 | 63 | 0.0 | 4.0 | 0.09 | 0.12 | 0.12 | 92 | 1009.3 |
| 20260509222210 | 58 | 63 | 3.0 | 4.0 | 0.08 | 0.11 | 0.12 | 92 | 1009.3 |
| 20260509222115 | 58 | 63 | 3.0 | 4.0 | 0.08 | 0.11 | 0.11 | 92 | 1009.4 |
| 20260509222020 | 58 | 63 | 3.0 | 4.0 | 0.08 | 0.11 | 0.11 | 92 | 1009.5 |
| 20260509221655 | 58 | 65 | 2.0 | 4.0 | 0.08 | 0.10 | 0.10 | 92 | 1009.5 |
| 20260509221608 | 58 | 65 | 2.0 | 4.0 | 0.08 | 0.10 | 0.10 | 92 | 1009.5 |
| 20260509221538 | 58 | 65 | 2.0 | 5.0 | 0.08 | 0.10 | 0.10 | 92 | 1009.5 |
| 20260509221511 | 58 | 65 | 2.0 | 5.0 | 0.08 | 0.10 | 0.10 | 92 | 1009.5 |
| 20260509221425 | 58 | 65 | 2.0 | 5.0 | 0.09 | 0.10 | 0.10 | 92 | 1009.6 |
| 20260509221254 | 58 | 59 | 2.0 | 5.0 | 0.08 | 0.09 | 0.10 | 92 | 1009.6 |
| 20260509221247 | 58 | 61 | 2.0 | 5.0 | 0.08 | 0.09 | 0.10 | 92 | 1009.5 |
| 20260509221108 | 58 | 63 | 1.0 | 6.0 | 0.08 | 0.09 | 0.09 | 92 | 1009.6 |
| 20260509221000 | 58 | 44 | 2.0 | 8.0 | 0.09 | 0.09 | 0.09 | 92 | 1009.6 |
| 20260509220904 | 58 | 42 | 1.0 | 8.0 | 0.09 | 0.09 | 0.09 | 92 | 1009.5 |
| 20260509220831 | 58 | 42 | 2.0 | 8.0 | 0.08 | 0.09 | 0.09 | 91 | 1009.7 |
| 20260509220321 | 59 | 43 | 4.0 | 8.0 | 0.08 | 0.09 | 0.09 | 91 | 1009.9 |
| 20260509220153 | 59 | 67 | 5.0 | 8.0 | 0.07 | 0.08 | 0.08 | 91 | 1010.2 |
| 20260509220010 | 59 | 71 | 4.0 | 6.0 | 0.07 | 0.08 | 0.08 | 91 | 1010.3 |
| 20260509215904 | 59 | 46 | 3.0 | 6.0 | 0.07 | 0.08 | 0.08 | 91 | 1010.4 |
| 20260509215822 | 59 | 61 | 3.0 | 6.0 | 0.07 | 0.08 | 0.08 | 91 | 1010.5 |
| 20260509215640 | 59 | 50 | 4.0 | 6.0 | 0.07 | 0.07 | 0.07 | 90 | 1010.7 |
| 20260509214853 | 59 | 95 | 1.0 | 4.0 | 0.06 | 0.06 | 0.06 | 90 | 1010.9 |
| 20260509214723 | 59 | 196 | 1.0 | 4.0 | 0.06 | 0.06 | 0.06 | 89 | 1010.9 |
| 20260509214610 | 59 | 200 | 2.0 | 4.0 | 0.06 | 0.06 | 0.06 | 89 | 1010.9 |
| 20260509214542 | 59 | 200 | 2.0 | 4.0 | 0.06 | 0.06 | 0.06 | 89 | 1010.9 |
| 20260509214415 | 59 | 238 | 2.0 | 4.0 | 0.06 | 0.06 | 0.06 | 89 | 1010.9 |
| 20260509214010 | 59 | 234 | 2.0 | 4.0 | 0.06 | 0.06 | 0.06 | 88 | 1010.8 |
| 20260509213503 | 59 | 205 | 2.0 | 5.0 | 0.05 | 0.05 | 0.05 | 87 | 1010.9 |
| 20260509213101 | 59 | 223 | 3.0 | 6.0 | 0.05 | 0.05 | 0.05 | 87 | 1011.1 |
| 20260509212936 | 60 | 207 | 3.0 | 6.0 | 0.05 | 0.05 | 0.05 | 86 | 1010.8 |
| 20260509212758 | 60 | 207 | 4.0 | 6.0 | 0.04 | 0.04 | 0.04 | 86 | 1010.7 |
| 20260509212726 | 60 | 220 | 4.0 | 6.0 | 0.04 | 0.04 | 0.04 | 86 | 1010.7 |
| 20260509212610 | 60 | 215 | 4.0 | 7.0 | 0.04 | 0.04 | 0.04 | 85 | 1010.7 |
| 20260509212423 | 60 | 212 | 5.0 | 7.0 | 0.04 | 0.04 | 0.04 | 85 | 1010.6 |
| 20260509212308 | 60 | 217 | 4.0 | 8.0 | 0.03 | 0.03 | 0.04 | 85 | 1010.5 |
| 20260509212228 | 60 | 209 | 4.0 | 8.0 | 0.03 | 0.03 | 0.03 | 84 | 1010.5 |
| 20260509212059 | 61 | 204 | 5.0 | 8.0 | 0.03 | 0.03 | 0.03 | 83 | 1010.3 |
| 20260509211905 | 61 | 226 | 4.0 | 10.0 | 0.03 | 0.03 | 0.03 | 83 | 1010.3 |
| 20260509211835 | 61 | 213 | 3.0 | 10.0 | 0.02 | 0.02 | 0.03 | 82 | 1010.2 |
| 20260509211712 | 62 | 218 | 3.0 | 10.0 | 0.02 | 0.02 | 0.02 | 84 | 1010.2 |
| 20260509211546 | 62 | 215 | 4.0 | 10.0 | 0.02 | 0.02 | 0.02 | 82 | 1010.2 |
| 20260509211423 | 62 | 307 | 4.0 | 10.0 | 0.02 | 0.02 | 0.02 | 82 | 1010.4 |
| 20260509210959 | 62 | 136 | 4.0 | 10.0 | 0.02 | 0.02 | 0.02 | 81 | 1010.5 |
| 20260509210819 | 63 | 86 | 5.0 | 9.0 | 0.02 | 0.02 | 0.02 | 81 | 1010.5 |
| 20260509210808 | 63 | 65 | 5.0 | 9.0 | 0.02 | 0.02 | 0.02 | 81 | 1010.6 |
| 20260509210633 | 63 | 123 | 3.0 | 9.0 | 0.01 | 0.01 | 0.02 | 81 | 1010.5 |
| 20260509210455 | 63 | 130 | 4.0 | 9.0 | 0.01 | 0.01 | 0.01 | 80 | 1010.5 |
| 20260509210345 | 63 | 121 | 3.0 | 9.0 | 0.01 | 0.01 | 0.01 | 80 | 1010.7 |
| 20260509210253 | 63 | 141 | 2.0 | 8.0 | 0.01 | 0.01 | 0.01 | 80 | 1010.7 |
| 20260509205509 | 65 | 186 | 3.0 | 11.0 | 0.01 | 0.01 | 0.01 | 82 | 1010.8 |
| 20260509205411 | 65 | 192 | 4.0 | 11.0 | 0.01 | 0.01 | 0.01 | 82 | 1010.5 |
| 20260509205331 | 65 | 157 | 5.0 | 11.0 | 0.01 | 0.01 | 0.01 | 82 | 1010.6 |
| 20260509205205 | 66 | 254 | 3.0 | 9.0 | 0.00 | 0.00 | 0.00 | 82 | 1010.5 |
| 20260509204841 | 66 | 212 | 3.0 | 9.0 | 0.00 | 0.00 | 0.00 | 81 | 1010.4 |
| 20260509204656 | 67 | 190 | 4.0 | 9.0 | 0.00 | 0.00 | 0.00 | 80 | 1010.5 |
| 20260509204514 | 67 | 130 | 6.0 | 9.0 | 0.00 | 0.00 | 0.00 | 79 | 1010.4 |
| 20260509204421 | 67 | 180 | 5.0 | 8.0 | 0.00 | 0.00 | 0.00 | 78 | 1010.4 |
| 20260509204332 | 67 | 154 | 4.0 | 8.0 | 0.00 | 0.00 | 0.00 | 78 | 1010.4 |
| 20260509204200 | 67 | 143 | 4.0 | 7.0 | 0.00 | 0.00 | 0.00 | 77 | 1010.2 |
| 20260509203900 | 67 | 159 | 4.0 | 7.0 | 0.00 | 0.00 | 0.00 | 77 | 1010.1 |
| 20260509203720 | 67 | 135 | 3.0 | 6.0 | 0.00 | 0.00 | 0.00 | 76 | 1010.0 |
| 20260509203535 | 68 | 132 | 3.0 | 7.0 | 0.00 | 0.00 | 0.00 | 76 | 1009.9 |
| 20260509203121 | 68 | 142 | 4.0 | 7.0 | 0.00 | 0.00 | 0.00 | 75 | 1009.9 |
| 20260509202233 | 68 | 149 | 3.0 | 7.0 | 0.00 | 0.00 | 0.00 | 75 | 1009.6 |
| 20260509202121 | 68 | 115 | 3.0 | 8.0 | 0.00 | 0.00 | 0.00 | 74 | 1009.6 |
| 20260509201945 | 68 | 111 | 3.0 | 8.0 | 0.00 | 0.00 | 0.00 | 74 | 1009.5 |
| 20260509201814 | 68 | 95 | 4.0 | 8.0 | 0.00 | 0.00 | 0.00 | 74 | 1009.5 |
| 20260509201754 | 68 | 124 | 4.0 | 8.0 | 0.00 | 0.00 | 0.00 | 74 | 1009.5 |
| 20260509201024 | 68 | 71 | 3.0 | 9.0 | 0.00 | 0.00 | 0.00 | 74 | 1009.3 |
| 20260509200842 | 68 | 88 | 3.0 | 9.0 | 0.00 | 0.00 | 0.00 | 74 | 1009.3 |
| 20260509200713 | 68 | 77 | 5.0 | 9.0 | 0.00 | 0.00 | 0.00 | 73 | 1009.2 |
| 20260509200649 | 68 | 45 | 5.0 | 9.0 | 0.00 | 0.00 | 0.00 | 73 | 1009.2 |
| 20260509200508 | 68 | 82 | 5.0 | 9.0 | 0.00 | 0.00 | 0.00 | 73 | 1009.2 |
| 20260509200213 | 69 | 68 | 5.0 | 9.0 | 0.00 | 0.00 | 0.00 | 73 | 1009.2 |
| 20260509195718 | 69 | 57 | 5.0 | 9.0 | 0.00 | 0.00 | 0.00 | 73 | 1009.1 |
| 20260509195550 | 69 | 67 | 5.0 | 9.0 | 0.00 | 0.00 | 0.00 | 73 | 1009.0 |
| 20260509195524 | 69 | 63 | 5.0 | 9.0 | 0.00 | 0.00 | 0.00 | 73 | 1009.0 |
| 20260509195340 | 69 | 69 | 4.0 | 9.0 | 0.00 | 0.00 | 0.00 | 73 | 1009.0 |
| 20260509195149 | 69 | 90 | 4.0 | 10.0 | 0.00 | 0.00 | 0.00 | 72 | 1009.0 |
| 20260509195119 | 69 | 69 | 4.0 | 10.0 | 0.00 | 0.00 | 0.00 | 72 | 1009.0 |
| 20260509194956 | 69 | 84 | 5.0 | 10.0 | 0.00 | 0.00 | 0.00 | 72 | 1009.0 |
| 20260509194810 | 69 | 134 | 4.0 | 10.0 | 0.00 | 0.00 | 0.00 | 72 | 1008.9 |
| 20260509194651 | 69 | 70 | 4.0 | 10.0 | 0.00 | 0.00 | 0.00 | 72 | 1008.9 |
| 20260509194623 | 69 | 109 | 4.0 | 10.0 | 0.00 | 0.00 | 0.00 | 72 | 1008.9 |
| 20260509194440 | 69 | 111 | 6.0 | 10.0 | 0.00 | 0.00 | 0.00 | 71 | 1008.9 |
| 20260509194008 | 69 | 71 | 3.0 | 6.0 | 0.00 | 0.00 | 0.00 | 72 | 1008.8 |
| 20260509193831 | 69 | 69 | 2.0 | 6.0 | 0.00 | 0.00 | 0.00 | 72 | 1008.8 |
| 20260509193709 | 69 | 49 | 3.0 | 6.0 | 0.00 | 0.00 | 0.00 | 71 | 1008.8 |
| 20260509193637 | 69 | 96 | 3.0 | 6.0 | 0.00 | 0.00 | 0.00 | 72 | 1008.9 |
| 20260509193136 | 69 | 68 | 2.0 | 6.0 | 0.00 | 0.00 | 0.00 | 71 | 1008.7 |
| 20260509193110 | 69 | 103 | 2.0 | 6.0 | 0.00 | 0.00 | 0.00 | 71 | 1008.7 |
| 20260509192950 | 69 | 78 | 2.0 | 6.0 | 0.00 | 0.00 | 0.00 | 71 | 1008.6 |
| 20260509192811 | 69 | 96 | 4.0 | 6.0 | 0.00 | 0.00 | 0.00 | 71 | 1008.7 |
| 20260509192646 | 70 | 81 | 3.0 | 6.0 | 0.00 | 0.00 | 0.00 | 71 | 1008.7 |
| 20260509192617 | 70 | 101 | 3.0 | 6.0 | 0.00 | 0.00 | 0.00 | 71 | 1008.7 |
| 20260509192436 | 70 | 64 | 2.0 | 6.0 | 0.00 | 0.00 | 0.00 | 71 | 1008.6 |
| 20260509192259 | 70 | 87 | 2.0 | 6.0 | 0.00 | 0.00 | 0.00 | 71 | 1008.6 |
| 20260509192229 | 70 | 82 | 3.0 | 9.0 | 0.00 | 0.00 | 0.00 | 71 | 1008.6 |
| 20260509191827 | 70 | 70 | 3.0 | 9.0 | 0.00 | 0.00 | 0.00 | 71 | 1008.6 |
| 20260509191643 | 70 | 44 | 4.0 | 9.0 | 0.00 | 0.00 | 0.00 | 71 | 1008.5 |
| 20260509191614 | 70 | 86 | 4.0 | 9.0 | 0.00 | 0.00 | 0.00 | 71 | 1008.5 |
| 20260509191044 | 70 | 90 | 4.0 | 9.0 | 0.00 | 0.00 | 0.00 | 71 | 1008.3 |
| 20260509191012 | 70 | 82 | 4.0 | 8.0 | 0.00 | 0.00 | 0.00 | 71 | 1008.3 |
| 20260509190906 | 70 | 77 | 4.0 | 8.0 | 0.00 | 0.00 | 0.00 | 71 | 1008.3 |
| 20260509190725 | 70 | 89 | 4.0 | 8.0 | 0.00 | 0.00 | 0.00 | 71 | 1008.2 |
| 20260509190605 | 70 | 77 | 4.0 | 9.0 | 0.00 | 0.00 | 0.00 | 71 | 1008.2 |
| 20260509190533 | 70 | 51 | 4.0 | 9.0 | 0.00 | 0.00 | 0.00 | 71 | 1008.2 |
| 20260509190352 | 70 | 76 | 5.0 | 10.0 | 0.00 | 0.00 | 0.00 | 71 | 1008.2 |
| 20260509190216 | 70 | 66 | 4.0 | 10.0 | 0.00 | 0.00 | 0.00 | 71 | 1008.2 |
| 20260509190145 | 70 | 43 | 4.0 | 10.0 | 0.00 | 0.00 | 0.00 | 71 | 1008.0 |
| 20260509190024 | 70 | 92 | 5.0 | 10.0 | 0.00 | 0.00 | 0.00 | 71 | 1008.1 |
| 20260509185846 | 71 | 76 | 6.0 | 10.0 | 0.00 | 0.00 | 0.00 | 71 | 1008.1 |
| 20260509185716 | 71 | 57 | 5.0 | 10.0 | 0.00 | 0.00 | 0.00 | 71 | 1008.0 |
| 20260509185643 | 71 | 46 | 5.0 | 10.0 | 0.00 | 0.00 | 0.00 | 71 | 1008.1 |
| 20260509185113 | 71 | 69 | 3.0 | 6.0 | 0.00 | 0.00 | 0.00 | 70 | 1008.0 |
| 20260509185037 | 71 | 65 | 3.0 | 6.0 | 0.00 | 0.00 | 0.00 | 70 | 1008.0 |
| 20260509184917 | 71 | 92 | 3.0 | 6.0 | 0.00 | 0.00 | 0.00 | 70 | 1008.0 |
| 20260509184736 | 71 | 66 | 4.0 | 6.0 | 0.00 | 0.00 | 0.00 | 70 | 1008.0 |
| 20260509184624 | 71 | 67 | 3.0 | 6.0 | 0.00 | 0.00 | 0.00 | 69 | 1008.0 |
| 20260509184547 | 71 | 54 | 3.0 | 5.0 | 0.00 | 0.00 | 0.00 | 69 | 1008.0 |
| 20260509184407 | 71 | 68 | 2.0 | 5.0 | 0.00 | 0.00 | 0.00 | 69 | 1008.0 |
| 20260509184227 | 71 | 47 | 1.0 | 7.0 | 0.00 | 0.00 | 0.00 | 70 | 1008.0 |
| 20260509184208 | 71 | 47 | 2.0 | 7.0 | 0.00 | 0.00 | 0.00 | 70 | 1008.0 |
| 20260509184103 | 71 | 57 | 2.0 | 7.0 | 0.00 | 0.00 | 0.00 | 69 | 1008.0 |
| 20260509183653 | 71 | 72 | 3.0 | 7.0 | 0.00 | 0.00 | 0.00 | 69 | 1007.9 |
| 20260509183309 | 72 | 73 | 3.0 | 8.0 | 0.00 | 0.00 | 0.00 | 68 | 1007.8 |
| 20260509182907 | 72 | 63 | 4.0 | 8.0 | 0.00 | 0.00 | 0.00 | 68 | 1007.7 |
| 20260509182445 | 72 | 82 | 5.0 | 10.0 | 0.00 | 0.00 | 0.00 | 68 | 1007.8 |
| 20260509182249 | 72 | 54 | 5.0 | 10.0 | 0.00 | 0.00 | 0.00 | 67 | 1007.7 |
| 20260509181737 | 73 | 49 | 6.0 | 10.0 | 0.00 | 0.00 | 0.00 | 67 | 1007.7 |
| 20260509181641 | 73 | 75 | 7.0 | 10.0 | 0.00 | 0.00 | 0.00 | 67 | 1007.7 |
| 20260509181547 | 73 | 57 | 5.0 | 10.0 | 0.00 | 0.00 | 0.00 | 67 | 1007.8 |
| 20260509181402 | 73 | 76 | 4.0 | 9.0 | 0.00 | 0.00 | 0.00 | 68 | 1007.7 |
| 20260509181213 | 73 | 34 | 0.0 | 4.0 | 0.00 | 0.00 | 0.00 | 68 | 1007.6 |
| 20260509181059 | 73 | 61 | 0.0 | 2.0 | 0.00 | 0.00 | 0.00 | 68 | 1007.7 |
| 20260509180723 | 73 | 49 | 0.0 | 6.0 | 0.00 | 0.00 | 0.00 | 67 | 1007.6 |
| 20260509180625 | 73 | 49 | 0.0 | 6.0 | 0.00 | 0.00 | 0.00 | 66 | 1007.5 |
| 20260509180214 | 73 | 51 | 3.0 | 6.0 | 0.00 | 0.00 | 0.00 | 67 | 1007.5 |
| 20260509180035 | 73 | 95 | 3.0 | 6.0 | 0.00 | 0.00 | 0.00 | 68 | 1007.5 |
| 20260509175941 | 73 | 52 | 3.0 | 5.0 | 0.00 | 0.00 | 0.00 | 67 | 1007.5 |
| 20260509175459 | 73 | 54 | 2.0 | 4.0 | 0.00 | 0.00 | 0.00 | 68 | 1007.4 |
| 20260509175317 | 73 | 76 | 3.0 | 5.0 | 0.00 | 0.00 | 0.00 | 67 | 1007.5 |
| 20260509175146 | 73 | 46 | 2.0 | 8.0 | 0.00 | 0.00 | 0.00 | 67 | 1007.5 |
| 20260509175009 | 73 | 47 | 2.0 | 8.0 | 0.00 | 0.00 | 0.00 | 67 | 1007.5 |
| 20260509174909 | 73 | 46 | 2.0 | 8.0 | 0.00 | 0.00 | 0.00 | 66 | 1007.4 |
| 20260509174812 | 73 | 67 | 3.0 | 8.0 | 0.00 | 0.00 | 0.00 | 66 | 1007.4 |
| 20260509174631 | 73 | 47 | 4.0 | 8.0 | 0.00 | 0.00 | 0.00 | 65 | 1007.5 |
| 20260509174456 | 73 | 74 | 4.0 | 8.0 | 0.00 | 0.00 | 0.00 | 65 | 1007.4 |
| 20260509174437 | 73 | 84 | 4.0 | 8.0 | 0.00 | 0.00 | 0.00 | 65 | 1007.4 |
| 20260509174255 | 73 | 109 | 4.0 | 8.0 | 0.00 | 0.00 | 0.00 | 66 | 1007.5 |
| 20260509173819 | 73 | 76 | 3.0 | 8.0 | 0.00 | 0.00 | 0.00 | 66 | 1007.5 |
| 20260509173707 | 73 | 88 | 4.0 | 8.0 | 0.00 | 0.00 | 0.00 | 66 | 1007.5 |
| 20260509173532 | 73 | 76 | 4.0 | 8.0 | 0.00 | 0.00 | 0.00 | 66 | 1007.5 |
| 20260509173411 | 73 | 87 | 6.0 | 8.0 | 0.00 | 0.00 | 0.00 | 66 | 1007.5 |
| 20260509172958 | 73 | 57 | 4.0 | 8.0 | 0.00 | 0.00 | 0.00 | 66 | 1007.6 |
| 20260509172822 | 73 | 55 | 4.0 | 8.0 | 0.00 | 0.00 | 0.00 | 66 | 1007.6 |
| 20260509172746 | 73 | 63 | 4.0 | 8.0 | 0.00 | 0.00 | 0.00 | 66 | 1007.7 |
| 20260509172635 | 73 | 103 | 4.0 | 8.0 | 0.00 | 0.00 | 0.00 | 66 | 1007.6 |
| 20260509172452 | 73 | 53 | 4.0 | 8.0 | 0.00 | 0.00 | 0.00 | 66 | 1007.5 |
| 20260509172156 | 73 | 54 | 4.0 | 8.0 | 0.00 | 0.00 | 0.00 | 65 | 1007.5 |
| 20260509172018 | 73 | 79 | 3.0 | 8.0 | 0.00 | 0.00 | 0.00 | 66 | 1007.6 |
| 20260509171840 | 73 | 52 | 4.0 | 8.0 | 0.00 | 0.00 | 0.00 | 66 | 1007.6 |
| 20260509171513 | 73 | 76 | 4.0 | 8.0 | 0.00 | 0.00 | 0.00 | 67 | 1007.7 |
| 20260509171342 | 73 | 85 | 5.0 | 8.0 | 0.00 | 0.00 | 0.00 | 66 | 1007.7 |
| 20260509171220 | 73 | 78 | 3.0 | 7.0 | 0.00 | 0.00 | 0.00 | 67 | 1007.8 |
| 20260509171147 | 73 | 100 | 3.0 | 7.0 | 0.00 | 0.00 | 0.00 | 67 | 1007.8 |
| 20260509171005 | 73 | 59 | 2.0 | 9.0 | 0.00 | 0.00 | 0.00 | 67 | 1007.8 |
| 20260509170557 | 73 | 82 | 4.0 | 9.0 | 0.00 | 0.00 | 0.00 | 66 | 1007.8 |
| 20260509170152 | 73 | 65 | 7.0 | 10.0 | 0.00 | 0.00 | 0.00 | 66 | 1007.7 |
| 20260509165416 | 74 | 65 | 4.0 | 10.0 | 0.00 | 0.00 | 0.00 | 66 | 1007.7 |
| 20260509164652 | 74 | 78 | 3.0 | 9.0 | 0.00 | 0.00 | 0.00 | 66 | 1007.7 |
| 20260509164508 | 74 | 59 | 6.0 | 12.0 | 0.00 | 0.00 | 0.00 | 65 | 1007.7 |
| 20260509164454 | 74 | 62 | 6.0 | 12.0 | 0.00 | 0.00 | 0.00 | 65 | 1007.7 |
| 20260509164326 | 74 | 108 | 5.0 | 12.0 | 0.00 | 0.00 | 0.00 | 66 | 1007.7 |
| 20260509164150 | 74 | 42 | 7.0 | 12.0 | 0.00 | 0.00 | 0.00 | 66 | 1007.7 |
| 20260509164047 | 74 | 54 | 8.0 | 12.0 | 0.00 | 0.00 | 0.00 | 68 | 1007.7 |
| 20260509164011 | 74 | 78 | 6.0 | 12.0 | 0.00 | 0.00 | 0.00 | 68 | 1007.7 |
| 20260509163858 | 74 | 87 | 4.0 | 12.0 | 0.00 | 0.00 | 0.00 | 68 | 1007.7 |
| 20260509163716 | 74 | 50 | 4.0 | 8.0 | 0.00 | 0.00 | 0.00 | 66 | 1007.7 |
| 20260509163147 | 74 | 82 | 4.0 | 11.0 | 0.00 | 0.00 | 0.00 | 66 | 1007.7 |
| 20260509163051 | 74 | 74 | 4.0 | 11.0 | 0.00 | 0.00 | 0.00 | 66 | 1007.6 |
| 20260509163010 | 74 | 118 | 5.0 | 11.0 | 0.00 | 0.00 | 0.00 | 66 | 1007.6 |
| 20260509162442 | 74 | 69 | 6.0 | 11.0 | 0.00 | 0.00 | 0.00 | 66 | 1007.6 |
| 20260509162306 | 74 | 79 | 4.0 | 10.0 | 0.00 | 0.00 | 0.00 | 66 | 1007.5 |
| 20260509162130 | 74 | 54 | 3.0 | 9.0 | 0.00 | 0.00 | 0.00 | 66 | 1007.6 |
| 20260509161743 | 74 | 84 | 5.0 | 11.0 | 0.00 | 0.00 | 0.00 | 66 | 1007.5 |
| 20260509161614 | 74 | 58 | 5.0 | 11.0 | 0.00 | 0.00 | 0.00 | 65 | 1007.5 |
| 20260509161429 | 74 | 77 | 5.0 | 11.0 | 0.00 | 0.00 | 0.00 | 65 | 1007.5 |
| 20260509161255 | 74 | 52 | 6.0 | 11.0 | 0.00 | 0.00 | 0.00 | 64 | 1007.5 |
| 20260509161123 | 74 | 46 | 6.0 | 11.0 | 0.00 | 0.00 | 0.00 | 65 | 1007.6 |
| 20260509160744 | 74 | 86 | 3.0 | 9.0 | 0.00 | 0.00 | 0.00 | 64 | 1007.6 |
| 20260509160619 | 74 | 108 | 6.0 | 10.0 | 0.00 | 0.00 | 0.00 | 64 | 1007.6 |
| 20260509160442 | 74 | 123 | 6.0 | 10.0 | 0.00 | 0.00 | 0.00 | 64 | 1007.6 |
| 20260509160435 | 74 | 123 | 6.0 | 10.0 | 0.00 | 0.00 | 0.00 | 64 | 1007.6 |
| 20260509160253 | 73 | 72 | 6.0 | 10.0 | 0.00 | 0.00 | 0.00 | 63 | 1007.6 |
| 20260509160123 | 73 | 80 | 6.0 | 10.0 | 0.00 | 0.00 | 0.00 | 64 | 1007.7 |
| 20260509160037 | 73 | 55 | 7.0 | 10.0 | 0.00 | 0.00 | 0.00 | 64 | 1007.6 |
| 20260509155942 | 73 | 109 | 6.0 | 10.0 | 0.00 | 0.00 | 0.00 | 65 | 1007.7 |
| 20260509155803 | 73 | 83 | 4.0 | 9.0 | 0.00 | 0.00 | 0.00 | 65 | 1007.7 |
| 20260509155634 | 73 | 136 | 5.0 | 9.0 | 0.00 | 0.00 | 0.00 | 64 | 1007.7 |
| 20260509155623 | 73 | 96 | 5.0 | 9.0 | 0.00 | 0.00 | 0.00 | 64 | 1007.7 |
| 20260509155052 | 73 | 114 | 6.0 | 11.0 | 0.00 | 0.00 | 0.00 | 65 | 1007.6 |
| 20260509155013 | 73 | 67 | 4.0 | 11.0 | 0.00 | 0.00 | 0.00 | 65 | 1007.7 |
| 20260509154908 | 73 | 59 | 4.0 | 11.0 | 0.00 | 0.00 | 0.00 | 66 | 1007.7 |
| 20260509154740 | 73 | 49 | 5.0 | 11.0 | 0.00 | 0.00 | 0.00 | 65 | 1007.7 |
| 20260509154343 | 73 | 96 | 7.0 | 11.0 | 0.00 | 0.00 | 0.00 | 66 | 1007.7 |
| 20260509154212 | 73 | 117 | 5.0 | 11.0 | 0.00 | 0.00 | 0.00 | 66 | 1007.7 |
| 20260509154021 | 73 | 86 | 5.0 | 11.0 | 0.00 | 0.00 | 0.00 | 65 | 1007.8 |
| 20260509153938 | 73 | 115 | 4.0 | 10.0 | 0.00 | 0.00 | 0.00 | 66 | 1007.8 |
| 20260509153834 | 73 | 79 | 5.0 | 10.0 | 0.00 | 0.00 | 0.00 | 66 | 1007.8 |
| 20260509153706 | 73 | 64 | 7.0 | 10.0 | 0.00 | 0.00 | 0.00 | 65 | 1007.8 |
| 20260509153550 | 73 | 86 | 6.0 | 9.0 | 0.00 | 0.00 | 0.00 | 65 | 1007.8 |
| 20260509153522 | 73 | 134 | 6.0 | 9.0 | 0.00 | 0.00 | 0.00 | 65 | 1007.8 |
| 20260509153345 | 73 | 112 | 5.0 | 9.0 | 0.00 | 0.00 | 0.00 | 65 | 1007.7 |
| 20260509153204 | 73 | 57 | 5.0 | 9.0 | 0.00 | 0.00 | 0.00 | 65 | 1007.9 |
| 20260509152811 | 73 | 82 | 5.0 | 9.0 | 0.00 | 0.00 | 0.00 | 64 | 1007.9 |
| 20260509152630 | 73 | 68 | 5.0 | 9.0 | 0.00 | 0.00 | 0.00 | 64 | 1008.0 |
| 20260509152512 | 73 | 113 | 3.0 | 9.0 | 0.00 | 0.00 | 0.00 | 67 | 1007.9 |
| 20260509152440 | 73 | 113 | 3.0 | 9.0 | 0.00 | 0.00 | 0.00 | 67 | 1008.0 |
| 20260509152314 | 73 | 128 | 2.0 | 9.0 | 0.00 | 0.00 | 0.00 | 67 | 1008.0 |
| 20260509152130 | 73 | 75 | 5.0 | 11.0 | 0.00 | 0.00 | 0.00 | 66 | 1008.0 |
| 20260509152106 | 73 | 84 | 6.0 | 11.0 | 0.00 | 0.00 | 0.00 | 66 | 1008.1 |
| 20260509151937 | 73 | 82 | 5.0 | 11.0 | 0.00 | 0.00 | 0.00 | 66 | 1008.1 |
| 20260509151440 | 73 | 88 | 4.0 | 11.0 | 0.00 | 0.00 | 0.00 | 65 | 1008.1 |
| 20260509151403 | 73 | 155 | 4.0 | 11.0 | 0.00 | 0.00 | 0.00 | 65 | 1008.2 |
| 20260509151226 | 73 | 167 | 7.0 | 11.0 | 0.00 | 0.00 | 0.00 | 65 | 1008.2 |
| 20260509151045 | 73 | 75 | 5.0 | 9.0 | 0.00 | 0.00 | 0.00 | 66 | 1008.2 |
| 20260509151020 | 73 | 106 | 6.0 | 9.0 | 0.00 | 0.00 | 0.00 | 66 | 1008.3 |
| 20260509150850 | 73 | 80 | 4.0 | 11.0 | 0.00 | 0.00 | 0.00 | 66 | 1008.3 |
| 20260509150708 | 73 | 101 | 4.0 | 11.0 | 0.00 | 0.00 | 0.00 | 66 | 1008.3 |
| 20260509150604 | 73 | 115 | 5.0 | 11.0 | 0.00 | 0.00 | 0.00 | 66 | 1008.3 |
| 20260509150518 | 73 | 99 | 5.0 | 12.0 | 0.00 | 0.00 | 0.00 | 67 | 1008.3 |
| 20260509150342 | 73 | 154 | 5.0 | 12.0 | 0.00 | 0.00 | 0.00 | 66 | 1008.4 |
| 20260509150201 | 73 | 126 | 8.0 | 12.0 | 0.00 | 0.00 | 0.00 | 65 | 1008.3 |
| 20260509150144 | 73 | 121 | 8.0 | 12.0 | 0.00 | 0.00 | 0.00 | 65 | 1008.3 |
| 20260509150011 | 73 | 56 | 7.0 | 12.0 | 0.00 | 0.00 | 0.00 | 64 | 1008.3 |
| 20260509145830 | 73 | 136 | 8.0 | 12.0 | 0.00 | 0.00 | 0.00 | 64 | 1008.4 |
| 20260509145716 | 73 | 74 | 9.0 | 12.0 | 0.00 | 0.00 | 0.00 | 64 | 1008.5 |
| 20260509145633 | 73 | 61 | 9.0 | 12.0 | 0.00 | 0.00 | 0.00 | 64 | 1008.4 |
| 20260509145449 | 73 | 86 | 6.0 | 11.0 | 0.00 | 0.00 | 0.00 | 65 | 1008.5 |
| 20260509145208 | 73 | 76 | 7.0 | 11.0 | 0.00 | 0.00 | 0.00 | 64 | 1008.6 |
| 20260509145027 | 73 | 101 | 7.0 | 13.0 | 0.00 | 0.00 | 0.00 | 65 | 1008.6 |
| 20260509144613 | 73 | 93 | 7.0 | 13.0 | 0.00 | 0.00 | 0.00 | 66 | 1008.5 |
| 20260509144533 | 73 | 104 | 6.0 | 13.0 | 0.00 | 0.00 | 0.00 | 65 | 1008.5 |
| 20260509144039 | 73 | 114 | 9.0 | 13.0 | 0.00 | 0.00 | 0.00 | 65 | 1008.5 |
| 20260509143920 | 73 | 82 | 7.0 | 11.0 | 0.00 | 0.00 | 0.00 | 66 | 1008.5 |
| 20260509143754 | 73 | 93 | 6.0 | 11.0 | 0.00 | 0.00 | 0.00 | 67 | 1008.6 |
| 20260509143400 | 73 | 78 | 7.0 | 11.0 | 0.00 | 0.00 | 0.00 | 66 | 1008.6 |
| 20260509142705 | 73 | 101 | 6.0 | 11.0 | 0.00 | 0.00 | 0.00 | 66 | 1008.7 |
| 20260509142537 | 73 | 92 | 6.0 | 11.0 | 0.00 | 0.00 | 0.00 | 66 | 1008.7 |
| 20260509142347 | 73 | 153 | 4.0 | 9.0 | 0.00 | 0.00 | 0.00 | 67 | 1008.7 |
| 20260509142006 | 73 | 91 | 5.0 | 9.0 | 0.00 | 0.00 | 0.00 | 68 | 1008.6 |
| 20260509141835 | 73 | 65 | 5.0 | 10.0 | 0.00 | 0.00 | 0.00 | 69 | 1008.6 |
| 20260509141652 | 73 | 51 | 5.0 | 11.0 | 0.00 | 0.00 | 0.00 | 68 | 1008.6 |
| 20260509141642 | 73 | 59 | 5.0 | 11.0 | 0.00 | 0.00 | 0.00 | 68 | 1008.6 |
| 20260509141452 | 72 | 58 | 7.0 | 11.0 | 0.00 | 0.00 | 0.00 | 68 | 1008.6 |
| 20260509141254 | 72 | 157 | 6.0 | 11.0 | 0.00 | 0.00 | 0.00 | 67 | 1008.7 |
| 20260509141207 | 73 | 121 | 6.0 | 11.0 | 0.00 | 0.00 | 0.00 | 67 | 1008.7 |
| 20260509141104 | 72 | 115 | 8.0 | 11.0 | 0.00 | 0.00 | 0.00 | 67 | 1008.6 |
| 20260509140941 | 73 | 111 | 4.0 | 11.0 | 0.00 | 0.00 | 0.00 | 69 | 1008.7 |
| 20260509140751 | 73 | 124 | 6.0 | 9.0 | 0.00 | 0.00 | 0.00 | 69 | 1008.7 |
| 20260509140732 | 73 | 96 | 6.0 | 9.0 | 0.00 | 0.00 | 0.00 | 69 | 1008.8 |
| 20260509140622 | 73 | 96 | 4.0 | 9.0 | 0.00 | 0.00 | 0.00 | 69 | 1008.7 |
| 20260509140223 | 73 | 44 | 6.0 | 10.0 | 0.00 | 0.00 | 0.00 | 68 | 1008.7 |
| 20260509140111 | 73 | 69 | 6.0 | 10.0 | 0.00 | 0.00 | 0.00 | 68 | 1008.7 |
| 20260509135551 | 73 | 82 | 5.0 | 10.0 | 0.00 | 0.00 | 0.00 | 68 | 1008.6 |
| 20260509135537 | 73 | 101 | 5.0 | 10.0 | 0.00 | 0.00 | 0.00 | 68 | 1008.6 |
| 20260509135408 | 73 | 86 | 7.0 | 10.0 | 0.00 | 0.00 | 0.00 | 67 | 1008.6 |
| 20260509135225 | 73 | 107 | 6.0 | 10.0 | 0.00 | 0.00 | 0.00 | 68 | 1008.7 |
| 20260509135151 | 73 | 74 | 6.0 | 10.0 | 0.00 | 0.00 | 0.00 | 67 | 1008.7 |
| 20260509135057 | 73 | 72 | 7.0 | 10.0 | 0.00 | 0.00 | 0.00 | 67 | 1008.6 |
| 20260509134930 | 73 | 76 | 6.0 | 14.0 | 0.00 | 0.00 | 0.00 | 68 | 1008.7 |
| 20260509134759 | 72 | 97 | 5.0 | 14.0 | 0.00 | 0.00 | 0.00 | 69 | 1008.7 |
| 20260509134731 | 72 | 101 | 5.0 | 14.0 | 0.00 | 0.00 | 0.00 | 68 | 1008.8 |
| 20260509134608 | 72 | 76 | 5.0 | 14.0 | 0.00 | 0.00 | 0.00 | 67 | 1008.7 |
| 20260509134440 | 72 | 71 | 8.0 | 14.0 | 0.00 | 0.00 | 0.00 | 65 | 1008.7 |
| 20260509134411 | 72 | 56 | 10.0 | 14.0 | 0.00 | 0.00 | 0.00 | 65 | 1008.9 |
| 20260509134252 | 72 | 59 | 9.0 | 14.0 | 0.00 | 0.00 | 0.00 | 67 | 1008.9 |
| 20260509134120 | 72 | 54 | 6.0 | 11.0 | 0.00 | 0.00 | 0.00 | 68 | 1008.9 |
| 20260509133728 | 72 | 61 | 4.0 | 10.0 | 0.00 | 0.00 | 0.00 | 69 | 1008.9 |
| 20260509133606 | 72 | 104 | 5.0 | 10.0 | 0.00 | 0.00 | 0.00 | 68 | 1008.9 |
| 20260509133443 | 72 | 84 | 7.0 | 10.0 | 0.00 | 0.00 | 0.00 | 67 | 1008.9 |
| 20260509133418 | 72 | 101 | 7.0 | 10.0 | 0.00 | 0.00 | 0.00 | 67 | 1008.9 |
| 20260509133259 | 72 | 59 | 6.0 | 9.0 | 0.00 | 0.00 | 0.00 | 68 | 1008.9 |
| 20260509133127 | 72 | 96 | 4.0 | 7.0 | 0.00 | 0.00 | 0.00 | 69 | 1008.9 |
| 20260509133041 | 72 | 121 | 3.0 | 7.0 | 0.00 | 0.00 | 0.00 | 70 | 1008.9 |
| 20260509133021 | 72 | 121 | 3.0 | 7.0 | 0.00 | 0.00 | 0.00 | 70 | 1008.9 |
| 20260509132902 | 72 | 115 | 5.0 | 11.0 | 0.00 | 0.00 | 0.00 | 70 | 1008.9 |
| 20260509132514 | 72 | 93 | 4.0 | 11.0 | 0.00 | 0.00 | 0.00 | 71 | 1009.0 |
| 20260509132423 | 72 | 90 | 4.0 | 12.0 | 0.00 | 0.00 | 0.00 | 71 | 1008.9 |
| 20260509132317 | 71 | 86 | 7.0 | 12.0 | 0.00 | 0.00 | 0.00 | 71 | 1009.0 |
| 20260509132228 | 71 | 86 | 4.0 | 12.0 | 0.00 | 0.00 | 0.00 | 71 | 1009.0 |
| 20260509132204 | 71 | 86 | 4.0 | 12.0 | 0.00 | 0.00 | 0.00 | 71 | 1008.9 |
| 20260509132027 | 71 | 48 | 4.0 | 12.0 | 0.00 | 0.00 | 0.00 | 71 | 1009.0 |
| 20260509131846 | 71 | 49 | 6.0 | 12.0 | 0.00 | 0.00 | 0.00 | 70 | 1009.0 |
| 20260509131826 | 71 | 37 | 6.0 | 12.0 | 0.00 | 0.00 | 0.00 | 70 | 1009.0 |
| 20260509131652 | 71 | 53 | 5.0 | 11.0 | 0.00 | 0.00 | 0.00 | 72 | 1009.0 |
| 20260509131544 | 71 | 86 | 2.0 | 11.0 | 0.00 | 0.00 | 0.00 | 72 | 1009.1 |
| 20260509131509 | 71 | 92 | 2.0 | 11.0 | 0.00 | 0.00 | 0.00 | 71 | 1009.0 |
| 20260509131425 | 71 | 77 | 2.0 | 11.0 | 0.00 | 0.00 | 0.00 | 71 | 1009.0 |
| 20260509131308 | 71 | 61 | 7.0 | 11.0 | 0.00 | 0.00 | 0.00 | 70 | 1009.1 |
| 20260509131123 | 71 | 127 | 4.0 | 11.0 | 0.00 | 0.00 | 0.00 | 71 | 1009.1 |
| 20260509130941 | 71 | 107 | 4.0 | 11.0 | 0.00 | 0.00 | 0.00 | 70 | 1009.2 |
| 20260509130823 | 71 | 116 | 6.0 | 11.0 | 0.00 | 0.00 | 0.00 | 70 | 1009.1 |
| 20260509130729 | 71 | 96 | 6.0 | 11.0 | 0.00 | 0.00 | 0.00 | 70 | 1009.2 |
| 20260509130632 | 71 | 115 | 8.0 | 11.0 | 0.00 | 0.00 | 0.00 | 70 | 1009.2 |
| 20260509130451 | 71 | 107 | 5.0 | 11.0 | 0.00 | 0.00 | 0.00 | 71 | 1009.2 |
| 20260509125708 | 71 | 125 | 5.0 | 11.0 | 0.00 | 0.00 | 0.00 | 72 | 1009.3 |
| 20260509125540 | 71 | 87 | 8.0 | 11.0 | 0.00 | 0.00 | 0.00 | 70 | 1009.3 |
| 20260509125423 | 71 | 83 | 6.0 | 11.0 | 0.00 | 0.00 | 0.00 | 71 | 1009.4 |
| 20260509125330 | 71 | 121 | 4.0 | 11.0 | 0.00 | 0.00 | 0.00 | 72 | 1009.4 |
| 20260509125155 | 71 | 111 | 7.0 | 10.0 | 0.00 | 0.00 | 0.00 | 70 | 1009.4 |
| 20260509124801 | 71 | 108 | 7.0 | 10.0 | 0.00 | 0.00 | 0.00 | 70 | 1009.4 |
| 20260509124621 | 70 | 132 | 4.0 | 10.0 | 0.00 | 0.00 | 0.00 | 71 | 1009.4 |
| 20260509124442 | 70 | 67 | 5.0 | 10.0 | 0.00 | 0.00 | 0.00 | 71 | 1009.4 |
| 20260509124346 | 70 | 119 | 6.0 | 10.0 | 0.00 | 0.00 | 0.00 | 70 | 1009.5 |
| 20260509124256 | 70 | 84 | 7.0 | 10.0 | 0.00 | 0.00 | 0.00 | 70 | 1009.4 |
| 20260509124117 | 70 | 113 | 6.0 | 10.0 | 0.00 | 0.00 | 0.00 | 71 | 1009.5 |
| 20260509123743 | 70 | 68 | 5.0 | 10.0 | 0.00 | 0.00 | 0.00 | 72 | 1009.5 |
| 20260509123608 | 70 | 137 | 5.0 | 11.0 | 0.00 | 0.00 | 0.00 | 72 | 1009.5 |
| 20260509123425 | 70 | 82 | 7.0 | 11.0 | 0.00 | 0.00 | 0.00 | 72 | 1009.5 |
| 20260509123342 | 70 | 46 | 6.0 | 11.0 | 0.00 | 0.00 | 0.00 | 71 | 1009.6 |
| 20260509122931 | 70 | 98 | 6.0 | 12.0 | 0.00 | 0.00 | 0.00 | 72 | 1009.5 |
| 20260509122746 | 70 | 123 | 7.0 | 12.0 | 0.00 | 0.00 | 0.00 | 72 | 1009.6 |
| 20260509122605 | 70 | 90 | 6.0 | 12.0 | 0.00 | 0.00 | 0.00 | 73 | 1009.6 |
| 20260509122154 | 70 | 105 | 8.0 | 12.0 | 0.00 | 0.00 | 0.00 | 72 | 1009.5 |
| 20260509122022 | 69 | 79 | 6.0 | 11.0 | 0.00 | 0.00 | 0.00 | 73 | 1009.6 |
| 20260509121758 | 69 | 80 | 8.0 | 11.0 | 0.00 | 0.00 | 0.00 | 73 | 1009.5 |
| 20260509121332 | 69 | 76 | 6.0 | 10.0 | 0.00 | 0.00 | 0.00 | 72 | 1009.7 |
| 20260509120735 | 69 | 169 | 7.0 | 11.0 | 0.00 | 0.00 | 0.00 | 71 | 1009.7 |
| 20260509120603 | 69 | 117 | 6.0 | 11.0 | 0.00 | 0.00 | 0.00 | 71 | 1009.7 |
| 20260509120427 | 69 | 94 | 6.0 | 12.0 | 0.00 | 0.00 | 0.00 | 72 | 1009.7 |
| 20260509120341 | 69 | 100 | 5.0 | 12.0 | 0.00 | 0.00 | 0.00 | 72 | 1009.7 |
| 20260509120247 | 69 | 123 | 7.0 | 12.0 | 0.00 | 0.00 | 0.00 | 72 | 1009.7 |
| 20260509120107 | 69 | 105 | 5.0 | 12.0 | 0.00 | 0.00 | 0.00 | 71 | 1009.7 |
| 20260509115600 | 69 | 134 | 9.0 | 12.0 | 0.00 | 0.00 | 0.00 | 70 | 1009.7 |
| 20260509115420 | 69 | 49 | 7.0 | 12.0 | 0.00 | 0.00 | 0.00 | 71 | 1009.7 |
| 20260509115324 | 69 | 116 | 6.0 | 12.0 | 0.00 | 0.00 | 0.00 | 71 | 1009.7 |
| 20260509115230 | 69 | 136 | 6.0 | 12.0 | 0.00 | 0.00 | 0.00 | 71 | 1009.7 |
| 20260509115107 | 69 | 96 | 8.0 | 12.0 | 0.00 | 0.00 | 0.00 | 72 | 1009.7 |
| 20260509114631 | 69 | 86 | 5.0 | 12.0 | 0.00 | 0.00 | 0.00 | 73 | 1009.7 |
| 20260509113946 | 68 | 121 | 7.0 | 13.0 | 0.00 | 0.00 | 0.00 | 74 | 1009.7 |
| 20260509113812 | 68 | 96 | 8.0 | 13.0 | 0.00 | 0.00 | 0.00 | 74 | 1009.7 |
| 20260509113623 | 68 | 82 | 8.0 | 13.0 | 0.00 | 0.00 | 0.00 | 74 | 1009.7 |
| 20260509113439 | 68 | 132 | 9.0 | 13.0 | 0.00 | 0.00 | 0.00 | 74 | 1009.7 |
| 20260509113259 | 68 | 70 | 8.0 | 12.0 | 0.00 | 0.00 | 0.00 | 75 | 1009.7 |
| 20260509113203 | 68 | 60 | 8.0 | 12.0 | 0.00 | 0.00 | 0.00 | 75 | 1009.7 |
| 20260509113109 | 68 | 65 | 6.0 | 12.0 | 0.00 | 0.00 | 0.00 | 76 | 1009.7 |
| 20260509112931 | 68 | 57 | 5.0 | 11.0 | 0.00 | 0.00 | 0.00 | 77 | 1009.7 |
| 20260509112754 | 68 | 46 | 6.0 | 11.0 | 0.00 | 0.00 | 0.00 | 76 | 1009.7 |
| 20260509112614 | 68 | 77 | 7.0 | 12.0 | 0.00 | 0.00 | 0.00 | 75 | 1009.6 |
| 20260509112435 | 68 | 78 | 7.0 | 12.0 | 0.00 | 0.00 | 0.00 | 76 | 1009.7 |
| 20260509112343 | 68 | 113 | 8.0 | 12.0 | 0.00 | 0.00 | 0.00 | 75 | 1009.6 |
| 20260509112258 | 68 | 102 | 7.0 | 12.0 | 0.00 | 0.00 | 0.00 | 75 | 1009.6 |
| 20260509111812 | 68 | 92 | 7.0 | 13.0 | 0.00 | 0.00 | 0.00 | 75 | 1009.6 |
| 20260509111247 | 68 | 111 | 9.0 | 13.0 | 0.00 | 0.00 | 0.00 | 77 | 1009.6 |
| 20260509111148 | 68 | 71 | 9.0 | 13.0 | 0.00 | 0.00 | 0.00 | 76 | 1009.6 |
| 20260509111054 | 68 | 80 | 7.0 | 13.0 | 0.00 | 0.00 | 0.00 | 76 | 1009.6 |
| 20260509110918 | 68 | 65 | 9.0 | 12.0 | 0.00 | 0.00 | 0.00 | 76 | 1009.7 |
| 20260509110724 | 68 | 118 | 5.0 | 11.0 | 0.00 | 0.00 | 0.00 | 78 | 1009.7 |
| 20260509110550 | 68 | 134 | 4.0 | 13.0 | 0.00 | 0.00 | 0.00 | 78 | 1009.6 |
| 20260509110130 | 67 | 99 | 7.0 | 13.0 | 0.00 | 0.00 | 0.00 | 77 | 1009.7 |
| 20260509105954 | 68 | 109 | 9.0 | 13.0 | 0.00 | 0.00 | 0.00 | 77 | 1009.7 |
| 20260509105445 | 67 | 71 | 7.0 | 12.0 | 0.00 | 0.00 | 0.00 | 77 | 1009.6 |
| 20260509105306 | 67 | 104 | 6.0 | 13.0 | 0.00 | 0.00 | 0.00 | 77 | 1009.7 |
| 20260509105209 | 67 | 76 | 5.0 | 13.0 | 0.00 | 0.00 | 0.00 | 77 | 1009.7 |
| 20260509104738 | 67 | 99 | 7.0 | 14.0 | 0.00 | 0.00 | 0.00 | 78 | 1009.7 |
| 20260509104545 | 67 | 103 | 7.0 | 14.0 | 0.00 | 0.00 | 0.00 | 78 | 1009.7 |
| 20260509104404 | 67 | 74 | 8.0 | 14.0 | 0.00 | 0.00 | 0.00 | 77 | 1009.7 |
| 20260509104228 | 67 | 109 | 9.0 | 14.0 | 0.00 | 0.00 | 0.00 | 78 | 1009.7 |
| 20260509104133 | 67 | 61 | 9.0 | 14.0 | 0.00 | 0.00 | 0.00 | 77 | 1009.8 |
| 20260509104039 | 67 | 81 | 8.0 | 13.0 | 0.00 | 0.00 | 0.00 | 77 | 1009.7 |
| 20260509103859 | 67 | 78 | 7.0 | 13.0 | 0.00 | 0.00 | 0.00 | 78 | 1009.8 |
| 20260509103719 | 67 | 88 | 8.0 | 13.0 | 0.00 | 0.00 | 0.00 | 77 | 1009.7 |
| 20260509103202 | 67 | 111 | 7.0 | 11.0 | 0.00 | 0.00 | 0.00 | 77 | 1009.8 |
| 20260509102813 | 67 | 98 | 5.0 | 11.0 | 0.00 | 0.00 | 0.00 | 79 | 1009.9 |
| 20260509102630 | 67 | 49 | 7.0 | 11.0 | 0.00 | 0.00 | 0.00 | 79 | 1009.9 |
| 20260509102449 | 67 | 83 | 8.0 | 11.0 | 0.00 | 0.00 | 0.00 | 78 | 1009.9 |
| 20260509102441 | 67 | 83 | 8.0 | 11.0 | 0.00 | 0.00 | 0.00 | 78 | 1009.9 |
| 20260509102259 | 67 | 109 | 6.0 | 11.0 | 0.00 | 0.00 | 0.00 | 80 | 1010.0 |
| 20260509102128 | 66 | 89 | 6.0 | 10.0 | 0.00 | 0.00 | 0.00 | 81 | 1010.1 |
| 20260509102016 | 66 | 67 | 6.0 | 9.0 | 0.00 | 0.00 | 0.00 | 81 | 1010.1 |
| 20260509101927 | 66 | 88 | 6.0 | 9.0 | 0.00 | 0.00 | 0.00 | 81 | 1010.2 |
| 20260509101739 | 66 | 96 | 4.0 | 8.0 | 0.00 | 0.00 | 0.00 | 81 | 1010.2 |
| 20260509101558 | 66 | 107 | 5.0 | 8.0 | 0.00 | 0.00 | 0.00 | 81 | 1010.2 |
| 20260509101545 | 66 | 76 | 5.0 | 8.0 | 0.00 | 0.00 | 0.00 | 81 | 1010.2 |
| 20260509101405 | 66 | 78 | 5.0 | 8.0 | 0.00 | 0.00 | 0.00 | 81 | 1010.1 |
| 20260509101234 | 66 | 63 | 4.0 | 8.0 | 0.00 | 0.00 | 0.00 | 81 | 1010.2 |
| 20260509101107 | 66 | 131 | 4.0 | 7.0 | 0.00 | 0.00 | 0.00 | 81 | 1010.1 |
| 20260509101021 | 66 | 96 | 3.0 | 7.0 | 0.00 | 0.00 | 0.00 | 81 | 1010.1 |
| 20260509100843 | 66 | 73 | 4.0 | 9.0 | 0.00 | 0.00 | 0.00 | 81 | 1010.2 |
| 20260509100706 | 66 | 65 | 3.0 | 9.0 | 0.00 | 0.00 | 0.00 | 82 | 1010.2 |
| 20260509100644 | 66 | 74 | 3.0 | 9.0 | 0.00 | 0.00 | 0.00 | 82 | 1010.2 |
| 20260509100518 | 65 | 111 | 4.0 | 9.0 | 0.00 | 0.00 | 0.00 | 82 | 1010.2 |
| 20260509100047 | 65 | 61 | 5.0 | 10.0 | 0.00 | 0.00 | 0.00 | 82 | 1010.3 |
| 20260509100001 | 65 | 115 | 5.0 | 10.0 | 0.00 | 0.00 | 0.00 | 82 | 1010.2 |
| 20260509095824 | 65 | 81 | 4.0 | 11.0 | 0.00 | 0.00 | 0.00 | 81 | 1010.1 |
| 20260509095644 | 65 | 98 | 4.0 | 11.0 | 0.00 | 0.00 | 0.00 | 82 | 1010.3 |
| 20260509095620 | 65 | 80 | 4.0 | 11.0 | 0.00 | 0.00 | 0.00 | 82 | 1010.3 |
| 20260509095456 | 65 | 48 | 4.0 | 11.0 | 0.00 | 0.00 | 0.00 | 82 | 1010.2 |
| 20260509095315 | 65 | 82 | 5.0 | 11.0 | 0.00 | 0.00 | 0.00 | 82 | 1010.3 |
| 20260509095200 | 64 | 42 | 6.0 | 11.0 | 0.00 | 0.00 | 0.00 | 82 | 1010.2 |
| 20260509095121 | 64 | 95 | 5.0 | 11.0 | 0.00 | 0.00 | 0.00 | 82 | 1010.2 |
| 20260509094715 | 64 | 65 | 4.0 | 11.0 | 0.00 | 0.00 | 0.00 | 83 | 1010.2 |
| 20260509094648 | 64 | 49 | 4.0 | 11.0 | 0.00 | 0.00 | 0.00 | 83 | 1010.2 |
| 20260509093842 | 63 | 80 | 3.0 | 10.0 | 0.00 | 0.00 | 0.00 | 86 | 1010.3 |
| 20260509093641 | 63 | 63 | 4.0 | 10.0 | 0.00 | 0.00 | 0.00 | 85 | 1010.3 |
| 20260509093612 | 63 | 128 | 5.0 | 10.0 | 0.00 | 0.00 | 0.00 | 85 | 1010.3 |
| 20260509093452 | 63 | 125 | 6.0 | 10.0 | 0.00 | 0.00 | 0.00 | 86 | 1010.3 |
| 20260509093312 | 63 | 52 | 7.0 | 10.0 | 0.00 | 0.00 | 0.00 | 86 | 1010.3 |
| 20260509092942 | 62 | 65 | 6.0 | 10.0 | 0.00 | 0.00 | 0.00 | 87 | 1010.3 |
| 20260509092808 | 62 | 75 | 6.0 | 10.0 | 0.00 | 0.00 | 0.00 | 87 | 1010.3 |
| 20260509092621 | 62 | 97 | 6.0 | 10.0 | 0.00 | 0.00 | 0.00 | 87 | 1010.4 |
| 20260509092550 | 62 | 76 | 6.0 | 10.0 | 0.00 | 0.00 | 0.00 | 88 | 1010.4 |
| 20260509092439 | 62 | 47 | 6.0 | 10.0 | 0.00 | 0.00 | 0.00 | 88 | 1010.4 |
| 20260509092258 | 62 | 81 | 5.0 | 10.0 | 0.00 | 0.00 | 0.00 | 89 | 1010.4 |
| 20260509092129 | 62 | 81 | 4.0 | 10.0 | 0.00 | 0.00 | 0.00 | 90 | 1010.4 |
| 20260509092103 | 62 | 130 | 4.0 | 10.0 | 0.00 | 0.00 | 0.00 | 90 | 1010.4 |
| 20260509091641 | 61 | 69 | 4.0 | 10.0 | 0.00 | 0.00 | 0.00 | 92 | 1010.4 |
| 20260509091607 | 61 | 74 | 4.0 | 10.0 | 0.00 | 0.00 | 0.00 | 92 | 1010.5 |
| 20260509091449 | 61 | 44 | 4.0 | 10.0 | 0.00 | 0.00 | 0.00 | 92 | 1010.4 |
| 20260509091305 | 60 | 82 | 6.0 | 10.0 | 0.00 | 0.00 | 0.00 | 92 | 1010.4 |
| 20260509090952 | 60 | 69 | 4.0 | 10.0 | 0.00 | 0.00 | 0.00 | 92 | 1010.5 |
| 20260509090807 | 60 | 70 | 6.0 | 10.0 | 0.00 | 0.00 | 0.00 | 92 | 1010.5 |
| 20260509090628 | 60 | 32 | 5.0 | 10.0 | 0.00 | 0.00 | 0.00 | 92 | 1010.5 |
| 20260509090554 | 60 | 57 | 5.0 | 10.0 | 0.00 | 0.00 | 0.00 | 92 | 1010.6 |
| 20260509090434 | 59 | 59 | 6.0 | 10.0 | 0.00 | 0.00 | 0.00 | 93 | 1010.6 |
| 20260509090256 | 59 | 27 | 5.0 | 10.0 | 0.00 | 0.00 | 0.00 | 93 | 1010.6 |
| 20260509085832 | 59 | 88 | 4.0 | 8.0 | 0.00 | 0.00 | 0.00 | 93 | 1010.7 |
| 20260509085646 | 59 | 65 | 4.0 | 8.0 | 0.00 | 0.00 | 0.00 | 93 | 1010.8 |
| 20260509085617 | 59 | 73 | 4.0 | 8.0 | 0.00 | 0.00 | 0.00 | 93 | 1010.7 |
| 20260509085200 | 58 | 51 | 4.0 | 9.0 | 0.00 | 0.00 | 0.00 | 93 | 1010.7 |
| 20260509085044 | 58 | 69 | 5.0 | 9.0 | 0.00 | 0.00 | 0.00 | 93 | 1010.8 |
| 20260509085009 | 58 | 58 | 5.0 | 9.0 | 0.00 | 0.00 | 0.00 | 94 | 1010.8 |
| 20260509084828 | 58 | 44 | 4.0 | 9.0 | 0.00 | 0.00 | 0.00 | 94 | 1010.8 |
| 20260509084423 | 58 | 46 | 3.0 | 10.0 | 0.00 | 0.00 | 0.00 | 95 | 1010.8 |
| 20260509084035 | 58 | 74 | 4.0 | 10.0 | 0.00 | 0.00 | 0.00 | 94 | 1010.8 |
| 20260509084002 | 58 | 113 | 4.0 | 10.0 | 0.00 | 0.00 | 0.00 | 94 | 1010.8 |
| 20260509083823 | 58 | 84 | 5.0 | 10.0 | 0.00 | 0.00 | 0.00 | 94 | 1010.9 |
| 20260509083636 | 58 | 105 | 7.0 | 10.0 | 0.00 | 0.00 | 0.00 | 95 | 1010.9 |
| 20260509082747 | 58 | 61 | 6.0 | 9.0 | 0.00 | 0.00 | 0.00 | 95 | 1010.9 |
| 20260509082602 | 58 | 67 | 4.0 | 9.0 | 0.00 | 0.00 | 0.00 | 95 | 1011.0 |
| 20260509082421 | 57 | 57 | 5.0 | 9.0 | 0.00 | 0.00 | 0.00 | 95 | 1010.8 |
| 20260509082025 | 57 | 101 | 5.0 | 9.0 | 0.00 | 0.00 | 0.00 | 95 | 1010.8 |
| 20260509081825 | 57 | 71 | 5.0 | 9.0 | 0.00 | 0.00 | 0.00 | 95 | 1010.8 |
| 20260509081711 | 57 | 75 | 6.0 | 9.0 | 0.00 | 0.00 | 0.00 | 95 | 1010.8 |
| 20260509081635 | 57 | 94 | 6.0 | 9.0 | 0.00 | 0.00 | 0.00 | 95 | 1010.9 |
| 20260509081451 | 57 | 63 | 5.0 | 9.0 | 0.00 | 0.00 | 0.00 | 95 | 1010.8 |
| 20260509081251 | 57 | 84 | 4.0 | 8.0 | 0.00 | 0.00 | 0.00 | 96 | 1010.9 |
| 20260509081231 | 57 | 65 | 4.0 | 8.0 | 0.00 | 0.00 | 0.00 | 96 | 1010.8 |
| 20260509081101 | 57 | 61 | 5.0 | 8.0 | 0.00 | 0.00 | 0.00 | 95 | 1010.9 |
| 20260509080930 | 57 | 106 | 5.0 | 8.0 | 0.00 | 0.00 | 0.00 | 96 | 1010.9 |
| 20260509080532 | 57 | 102 | 4.0 | 7.0 | 0.00 | 0.00 | 0.00 | 96 | 1010.9 |
| 20260509080349 | 57 | 102 | 4.0 | 7.0 | 0.00 | 0.00 | 0.00 | 96 | 1010.8 |
| 20260509080152 | 57 | 110 | 4.0 | 7.0 | 0.00 | 0.00 | 0.00 | 96 | 1010.8 |
| 20260509080135 | 57 | 122 | 4.0 | 7.0 | 0.00 | 0.00 | 0.00 | 96 | 1010.8 |
| 20260509080007 | 57 | 80 | 4.0 | 8.0 | 0.00 | 0.00 | 0.00 | 96 | 1010.8 |
| 20260509075804 | 57 | 95 | 3.0 | 8.0 | 0.00 | 0.00 | 0.00 | 96 | 1010.8 |
| 20260509075408 | 57 | 90 | 3.0 | 8.0 | 0.00 | 0.00 | 0.00 | 96 | 1010.8 |
| 20260509074831 | 57 | 124 | 4.0 | 9.0 | 0.00 | 0.00 | 0.00 | 97 | 1010.7 |
| 20260509074814 | 57 | 107 | 5.0 | 9.0 | 0.00 | 0.00 | 0.00 | 97 | 1010.7 |
| 20260509074639 | 57 | 86 | 4.0 | 9.0 | 0.00 | 0.00 | 0.00 | 97 | 1010.7 |
| 20260509074438 | 57 | 80 | 3.0 | 9.0 | 0.00 | 0.00 | 0.00 | 97 | 1010.6 |
| 20260509074337 | 57 | 113 | 4.0 | 9.0 | 0.00 | 0.00 | 0.00 | 97 | 1010.6 |
| 20260509074247 | 57 | 86 | 4.0 | 9.0 | 0.00 | 0.00 | 0.00 | 97 | 1010.6 |
| 20260509074050 | 57 | 72 | 3.0 | 10.0 | 0.00 | 0.00 | 0.00 | 97 | 1010.6 |
| 20260509073907 | 56 | 65 | 4.0 | 10.0 | 0.00 | 0.00 | 0.00 | 97 | 1010.5 |
| 20260509073859 | 56 | 65 | 4.0 | 10.0 | 0.00 | 0.00 | 0.00 | 97 | 1010.5 |
| 20260509073715 | 56 | 71 | 4.0 | 10.0 | 0.00 | 0.00 | 0.00 | 97 | 1010.5 |
| 20260509073518 | 56 | 111 | 7.0 | 10.0 | 0.00 | 0.00 | 0.00 | 97 | 1010.5 |
| 20260509073422 | 56 | 66 | 6.0 | 10.0 | 0.00 | 0.00 | 0.00 | 97 | 1010.4 |
| 20260509072529 | 56 | 83 | 4.0 | 7.0 | 0.00 | 0.00 | 0.00 | 97 | 1010.4 |
| 20260509072135 | 56 | 89 | 3.0 | 8.0 | 0.00 | 0.00 | 0.00 | 97 | 1010.5 |
| 20260509071944 | 56 | 103 | 4.0 | 8.0 | 0.00 | 0.00 | 0.00 | 97 | 1010.5 |
| 20260509071837 | 56 | 112 | 3.0 | 8.0 | 0.00 | 0.00 | 0.00 | 97 | 1010.5 |
| 20260509071755 | 56 | 109 | 2.0 | 8.0 | 0.00 | 0.00 | 0.00 | 98 | 1010.5 |
| 20260509071208 | 56 | 71 | 4.0 | 8.0 | 0.00 | 0.00 | 0.00 | 97 | 1010.6 |
| 20260509071145 | 56 | 82 | 4.0 | 8.0 | 0.00 | 0.00 | 0.00 | 97 | 1010.5 |
| 20260509070608 | 56 | 77 | 4.0 | 8.0 | 0.00 | 0.00 | 0.00 | 98 | 1010.4 |
| 20260509070456 | 56 | 98 | 5.0 | 8.0 | 0.00 | 0.00 | 0.00 | 98 | 1010.5 |
| 20260509070415 | 56 | 46 | 4.0 | 8.0 | 0.00 | 0.00 | 0.00 | 97 | 1010.5 |
| 20260509070228 | 56 | 53 | 5.0 | 9.0 | 0.00 | 0.00 | 0.00 | 97 | 1010.4 |
| 20260509070047 | 56 | 67 | 4.0 | 9.0 | 0.00 | 0.00 | 0.00 | 97 | 1010.5 |
| 20260509070030 | 56 | 80 | 4.0 | 9.0 | 0.00 | 0.00 | 0.00 | 97 | 1010.4 |
| 20260509065450 | 56 | 80 | 5.0 | 9.0 | 0.00 | 0.00 | 0.00 | 97 | 1010.4 |
| 20260509065338 | 56 | 85 | 6.0 | 9.0 | 0.00 | 0.00 | 0.00 | 97 | 1010.4 |
| 20260509064858 | 56 | 51 | 4.0 | 9.0 | 0.00 | 0.00 | 0.00 | 97 | 1010.5 |
| 20260509064717 | 56 | 44 | 5.0 | 9.0 | 0.00 | 0.00 | 0.00 | 97 | 1010.4 |
| 20260509064657 | 56 | 67 | 5.0 | 9.0 | 0.00 | 0.00 | 0.00 | 98 | 1010.4 |
| 20260509064530 | 55 | 53 | 5.0 | 9.0 | 0.00 | 0.00 | 0.00 | 98 | 1010.4 |
| 20260509064341 | 55 | 62 | 6.0 | 9.0 | 0.00 | 0.00 | 0.00 | 97 | 1010.3 |
| 20260509064228 | 55 | 65 | 4.0 | 8.0 | 0.00 | 0.00 | 0.00 | 98 | 1010.4 |
| 20260509064151 | 55 | 56 | 4.0 | 8.0 | 0.00 | 0.00 | 0.00 | 98 | 1010.5 |
| 20260509063958 | 55 | 58 | 5.0 | 8.0 | 0.00 | 0.00 | 0.00 | 97 | 1010.5 |
| 20260509063820 | 55 | 49 | 4.0 | 8.0 | 0.00 | 0.00 | 0.00 | 98 | 1010.5 |
| 20260509063422 | 55 | 44 | 3.0 | 8.0 | 0.00 | 0.00 | 0.00 | 98 | 1010.5 |
| 20260509063229 | 55 | 76 | 4.0 | 8.0 | 0.00 | 0.00 | 0.00 | 98 | 1010.5 |
| 20260509062832 | 55 | 84 | 5.0 | 9.0 | 0.00 | 0.00 | 0.00 | 98 | 1010.6 |
| 20260509062628 | 55 | 59 | 5.0 | 9.0 | 0.00 | 0.00 | 0.00 | 98 | 1010.5 |
| 20260509062448 | 55 | 75 | 5.0 | 9.0 | 0.00 | 0.00 | 0.00 | 98 | 1010.5 |
| 20260509062431 | 55 | 56 | 5.0 | 9.0 | 0.00 | 0.00 | 0.00 | 98 | 1010.5 |
| 20260509062257 | 55 | 73 | 6.0 | 9.0 | 0.00 | 0.00 | 0.00 | 98 | 1010.7 |
| 20260509062101 | 55 | 70 | 5.0 | 9.0 | 0.00 | 0.00 | 0.00 | 97 | 1010.6 |
| 20260509061952 | 55 | 93 | 6.0 | 9.0 | 0.00 | 0.00 | 0.00 | 97 | 1010.6 |
| 20260509061906 | 55 | 78 | 6.0 | 9.0 | 0.00 | 0.00 | 0.00 | 97 | 1010.6 |
| 20260509061705 | 55 | 74 | 6.0 | 8.0 | 0.00 | 0.00 | 0.00 | 97 | 1010.6 |
| 20260509061530 | 55 | 89 | 4.0 | 7.0 | 0.00 | 0.00 | 0.00 | 97 | 1010.7 |
| 20260509061518 | 55 | 74 | 4.0 | 7.0 | 0.00 | 0.00 | 0.00 | 97 | 1010.7 |
| 20260509061346 | 55 | 67 | 4.0 | 7.0 | 0.00 | 0.00 | 0.00 | 97 | 1010.7 |
| 20260509061152 | 55 | 72 | 4.0 | 8.0 | 0.00 | 0.00 | 0.00 | 97 | 1010.7 |
| 20260509061051 | 55 | 65 | 4.0 | 8.0 | 0.00 | 0.00 | 0.00 | 97 | 1010.7 |
| 20260509061011 | 55 | 40 | 4.0 | 8.0 | 0.00 | 0.00 | 0.00 | 97 | 1010.8 |
| 20260509060811 | 55 | 51 | 4.0 | 8.0 | 0.00 | 0.00 | 0.00 | 97 | 1010.7 |
| 20260509060631 | 55 | 66 | 3.0 | 8.0 | 0.00 | 0.00 | 0.00 | 97 | 1010.7 |
| 20260509060231 | 55 | 47 | 5.0 | 8.0 | 0.00 | 0.00 | 0.00 | 97 | 1010.7 |
| 20260509055430 | 55 | 62 | 4.0 | 7.0 | 0.00 | 0.00 | 0.00 | 97 | 1010.7 |
| 20260509054852 | 55 | 103 | 2.0 | 4.0 | 0.00 | 0.00 | 0.00 | 97 | 1010.9 |
| 20260509054836 | 55 | 86 | 2.0 | 4.0 | 0.00 | 0.00 | 0.00 | 97 | 1010.8 |
| 20260509054703 | 55 | 90 | 3.0 | 4.0 | 0.00 | 0.00 | 0.00 | 97 | 1010.9 |
| 20260509054200 | 55 | 55 | 2.0 | 4.0 | 0.00 | 0.00 | 0.00 | 97 | 1010.8 |
| 20260509054104 | 55 | 63 | 2.0 | 4.0 | 0.00 | 0.00 | 0.00 | 97 | 1010.8 |
| 20260509053824 | 55 | 55 | 1.0 | 3.0 | 0.00 | 0.00 | 0.00 | 97 | 1010.9 |
| 20260509053702 | 55 | 101 | 2.0 | 3.0 | 0.00 | 0.00 | 0.00 | 97 | 1010.8 |
| 20260509053517 | 55 | 129 | 1.0 | 3.0 | 0.00 | 0.00 | 0.00 | 97 | 1010.8 |
| 20260509053314 | 55 | 188 | 0.0 | 4.0 | 0.00 | 0.01 | 0.00 | 97 | 1010.9 |
| 20260509053252 | 55 | 188 | 0.0 | 4.0 | 0.00 | 0.01 | 0.00 | 97 | 1010.8 |
| 20260509053223 | 55 | 188 | 0.0 | 4.0 | 0.00 | 0.01 | 0.00 | 97 | 1010.9 |
| 20260509053123 | 55 | 188 | 1.0 | 4.0 | 0.00 | 0.01 | 0.00 | 97 | 1010.8 |
| 20260509053025 | 55 | 188 | 0.0 | 4.0 | 0.00 | 0.01 | 0.00 | 97 | 1010.8 |
| 20260509052535 | 55 | 148 | 2.0 | 5.0 | 0.00 | 0.01 | 0.00 | 97 | 1010.7 |
| 20260509052445 | 55 | 123 | 2.0 | 5.0 | 0.00 | 0.01 | 0.00 | 97 | 1010.6 |